Time,TemperatureF,DewpointF,PressureIn,WindDirection,WindDirectionDegrees,WindSpeedMPH,WindSpeedGustMPH,Humidity,HourlyPrecipIn,Conditions,Clouds,dailyrainin,SoftwareType,DateUTC
2013-10-07 00:03:00,53.2,22.5,30.06,WSW,255,8.0,12.0,30,0.00,,,0.00,Wunderground v.1.15,2013-10-07 06:03:00,
2013-10-07 00:04:00,53.2,21.7,30.06,West,265,8.0,12.0,29,0.00,,,0.00,Wunderground v.1.15,2013-10-07 06:04:00,
2013-10-07 00:05:00,53.3,21.8,30.06,WSW,257,8.0,12.0,29,0.00,,,0.00,Wunderground v.1.15,2013-10-07 06:05:00,
2013-10-07 00:07:00,53.3,21.8,30.06,WSW,257,8.0,12.0,29,0.00,,,0.00,Wunderground v.1.15,2013-10-07 06:07:00,
2013-10-07 00:11:00,53.5,21.2,30.06,West,262,8.0,9.0,28,0.00,,,0.00,Wunderground v.1.15,2013-10-07 06:11:00,
2013-10-07 00:13:00,53.5,21.2,30.06,West,271,8.0,9.0,28,0.00,,,0.00,Wunderground v.1.15,2013-10-07 06:13:00,
2013-10-07 00:16:00,53.4,20.2,30.06,WSW,246,8.0,10.0,27,0.00,,,0.00,Wunderground v.1.15,2013-10-07 06:16:00,
2013-10-07 00:17:00,53.4,20.2,30.06,WSW,257,8.0,10.0,27,0.00,,,0.00,Wunderground v.1.15,2013-10-07 06:17:00,
2013-10-07 00:20:00,53.6,19.5,30.06,West,274,8.0,12.0,26,0.00,,,0.00,Wunderground v.1.15,2013-10-07 06:20:00,
2013-10-07 00:22:00,53.8,18.7,30.05,WSW,239,9.0,12.0,25,0.00,,,0.00,Wunderground v.1.15,2013-10-07 06:22:00,
2013-10-07 00:23:00,53.8,19.7,30.05,WNW,285,9.0,12.0,26,0.00,,,0.00,Wunderground v.1.15,2013-10-07 06:23:00,
2013-10-07 00:24:00,53.8,18.7,30.05,WSW,252,8.0,12.0,25,0.00,,,0.00,Wunderground v.1.15,2013-10-07 06:24:00,
2013-10-07 00:25:00,53.7,18.7,30.05,West,279,8.0,12.0,25,0.00,,,0.00,Wunderground v.1.15,2013-10-07 06:25:00,
2013-10-07 00:27:00,53.9,17.9,30.05,West,272,9.0,19.0,24,0.00,,,0.00,Wunderground v.1.15,2013-10-07 06:27:00,
2013-10-07 00:29:00,54.1,18.1,30.05,WSW,245,9.0,19.0,24,0.00,,,0.00,Wunderground v.1.15,2013-10-07 06:29:00,
2013-10-07 00:30:00,54.1,18.1,30.05,West,260,9.0,9.0,24,0.00,,,0.00,Wunderground v.1.15,2013-10-07 06:30:00,
2013-10-07 00:31:00,54.1,18.1,30.05,SW,228,9.0,16.0,24,0.00,,,0.00,Wunderground v.1.15,2013-10-07 06:31:00,
2013-10-07 00:34:00,54.2,18.1,30.05,WNW,284,11.0,16.0,24,0.00,,,0.00,Wunderground v.1.15,2013-10-07 06:34:00,
2013-10-07 00:36:00,54.2,18.1,30.05,WNW,299,11.0,16.0,24,0.00,,,0.00,Wunderground v.1.15,2013-10-07 06:36:00,
2013-10-07 00:37:00,54.2,18.1,30.05,WSW,246,11.0,16.0,24,0.00,,,0.00,Wunderground v.1.15,2013-10-07 06:37:00,
2013-10-07 00:40:00,54.1,19.0,30.05,West,276,10.0,10.0,25,0.00,,,0.00,Wunderground v.1.15,2013-10-07 06:40:00,
2013-10-07 00:43:00,54.0,18.0,30.05,WSW,255,9.0,10.0,24,0.00,,,0.00,Wunderground v.1.15,2013-10-07 06:43:00,
2013-10-07 00:44:00,54.0,18.0,30.05,South,179,9.0,10.0,24,0.00,,,0.00,Wunderground v.1.15,2013-10-07 06:44:00,
2013-10-07 00:45:00,54.0,18.0,30.05,SW,236,9.0,12.0,24,0.00,,,0.00,Wunderground v.1.15,2013-10-07 06:45:00,
2013-10-07 00:46:00,54.0,18.0,30.05,West,264,9.0,12.0,24,0.00,,,0.00,Wunderground v.1.15,2013-10-07 06:46:00,
2013-10-07 00:49:00,53.9,17.9,30.04,WSW,240,9.0,18.0,24,0.00,,,0.00,Wunderground v.1.15,2013-10-07 06:49:00,
2013-10-07 00:50:00,53.9,17.9,30.04,West,270,10.0,10.0,24,0.00,,,0.00,Wunderground v.1.15,2013-10-07 06:50:00,
2013-10-07 00:51:00,53.9,17.9,30.05,WSW,246,10.0,14.0,24,0.00,,,0.00,Wunderground v.1.15,2013-10-07 06:51:00,
2013-10-07 00:52:00,53.9,16.9,30.05,West,263,10.0,14.0,23,0.00,,,0.00,Wunderground v.1.15,2013-10-07 06:52:00,
2013-10-07 00:54:00,54.1,17.1,30.04,WSW,239,10.0,14.0,23,0.00,,,0.00,Wunderground v.1.15,2013-10-07 06:54:00,
2013-10-07 00:56:00,54.1,17.1,30.04,WSW,256,10.0,19.0,23,0.00,,,0.00,Wunderground v.1.15,2013-10-07 06:56:00,
2013-10-07 00:57:00,54.1,17.1,30.04,West,269,10.0,19.0,23,0.00,,,0.00,Wunderground v.1.15,2013-10-07 06:57:00,
2013-10-07 00:58:00,54.2,17.1,30.05,WNW,290,11.0,19.0,23,0.00,,,0.00,Wunderground v.1.15,2013-10-07 06:58:00,
2013-10-07 01:00:00,54.4,17.3,30.04,West,278,12.0,12.0,23,0.00,,,0.00,Wunderground v.1.15,2013-10-07 07:00:00,
2013-10-07 01:02:00,54.4,17.3,30.04,West,275,13.0,16.0,23,0.00,,,0.00,Wunderground v.1.15,2013-10-07 07:02:00,
2013-10-07 01:04:00,54.5,16.4,30.04,WSW,245,13.0,16.0,22,0.00,,,0.00,Wunderground v.1.15,2013-10-07 07:04:00,
2013-10-07 01:05:00,54.5,16.4,30.04,WSW,250,13.0,22.0,22,0.00,,,0.00,Wunderground v.1.15,2013-10-07 07:05:00,
2013-10-07 01:09:00,54.7,16.5,30.05,WSW,257,15.0,22.0,22,0.00,,,0.00,Wunderground v.1.15,2013-10-07 07:09:00,
2013-10-07 01:10:00,54.7,16.5,30.04,WSW,256,14.0,14.0,22,0.00,,,0.00,Wunderground v.1.15,2013-10-07 07:10:00,
2013-10-07 01:11:00,54.7,16.5,30.04,West,281,15.0,15.0,22,0.00,,,0.00,Wunderground v.1.15,2013-10-07 07:11:00,
2013-10-07 01:13:00,54.8,16.6,30.04,West,273,15.0,23.0,22,0.00,,,0.00,Wunderground v.1.15,2013-10-07 07:13:00,
2013-10-07 01:15:00,54.9,16.7,30.04,West,270,15.0,23.0,22,0.00,,,0.00,Wunderground v.1.15,2013-10-07 07:15:00,
2013-10-07 01:17:00,54.9,16.7,30.04,South,184,15.0,23.0,22,0.00,,,0.00,Wunderground v.1.15,2013-10-07 07:17:00,
2013-10-07 01:19:00,54.9,16.7,30.04,WSW,255,15.0,23.0,22,0.00,,,0.00,Wunderground v.1.15,2013-10-07 07:19:00,
2013-10-07 01:22:00,54.8,16.6,30.04,West,264,15.0,15.0,22,0.00,,,0.00,Wunderground v.1.15,2013-10-07 07:22:00,
2013-10-07 01:24:00,54.6,16.5,30.04,West,264,13.0,15.0,22,0.00,,,0.00,Wunderground v.1.15,2013-10-07 07:24:00,
2013-10-07 01:27:00,54.5,16.4,30.04,SW,221,11.0,15.0,22,0.00,,,0.00,Wunderground v.1.15,2013-10-07 07:27:00,
2013-10-07 01:28:00,54.4,16.3,30.04,WSW,255,11.0,17.0,22,0.00,,,0.00,Wunderground v.1.15,2013-10-07 07:28:00,
2013-10-07 01:30:00,54.3,16.2,30.04,SW,231,10.0,10.0,22,0.00,,,0.00,Wunderground v.1.15,2013-10-07 07:30:00,
2013-10-07 01:33:00,54.3,16.2,30.04,WSW,252,10.0,15.0,22,0.00,,,0.00,Wunderground v.1.15,2013-10-07 07:33:00,
2013-10-07 01:36:00,54.2,16.1,30.04,WSW,239,10.0,15.0,22,0.00,,,0.00,Wunderground v.1.15,2013-10-07 07:36:00,
2013-10-07 01:39:00,54.2,16.1,30.04,WNW,298,10.0,15.0,22,0.00,,,0.00,Wunderground v.1.15,2013-10-07 07:39:00,
2013-10-07 01:41:00,54.2,16.1,30.04,SW,222,10.0,12.0,22,0.00,,,0.00,Wunderground v.1.15,2013-10-07 07:41:00,
2013-10-07 01:43:00,54.0,17.0,30.04,WSW,246,9.0,12.0,23,0.00,,,0.00,Wunderground v.1.15,2013-10-07 07:43:00,
2013-10-07 01:44:00,53.9,16.9,30.04,WSW,255,9.0,12.0,23,0.00,,,0.00,Wunderground v.1.15,2013-10-07 07:44:00,
2013-10-07 01:47:00,53.7,16.7,30.04,WNW,298,9.0,12.0,23,0.00,,,0.00,Wunderground v.1.15,2013-10-07 07:47:00,
2013-10-07 01:48:00,53.6,15.6,30.04,WNW,288,8.0,12.0,22,0.00,,,0.00,Wunderground v.1.15,2013-10-07 07:48:00,
2013-10-07 01:50:00,53.7,15.7,30.04,WSW,246,8.0,8.0,22,0.00,,,0.00,Wunderground v.1.15,2013-10-07 07:50:00,
2013-10-07 01:52:00,53.5,16.6,30.04,West,280,8.0,8.0,23,0.00,,,0.00,Wunderground v.1.15,2013-10-07 07:52:00,
2013-10-07 01:53:00,53.4,16.5,30.04,SW,228,7.0,8.0,23,0.00,,,0.00,Wunderground v.1.15,2013-10-07 07:53:00,
2013-10-07 01:55:00,53.2,17.3,30.04,West,269,7.0,8.0,24,0.00,,,0.00,Wunderground v.1.15,2013-10-07 07:55:00,
2013-10-07 01:57:00,53.1,15.2,30.04,SW,219,7.0,14.0,22,0.00,,,0.00,Wunderground v.1.15,2013-10-07 07:57:00,
2013-10-07 01:58:00,53.3,14.3,30.04,West,276,7.0,14.0,21,0.00,,,0.00,Wunderground v.1.15,2013-10-07 07:58:00,
2013-10-07 01:59:00,53.6,14.5,30.04,West,268,8.0,14.0,21,0.00,,,0.00,Wunderground v.1.15,2013-10-07 07:59:00,
2013-10-07 02:00:00,53.6,15.6,30.04,West,263,8.0,8.0,22,0.00,,,0.00,Wunderground v.1.15,2013-10-07 08:00:00,
2013-10-07 02:02:00,53.7,14.6,30.04,SW,233,8.0,9.0,21,0.00,,,0.00,Wunderground v.1.15,2013-10-07 08:02:00,
2013-10-07 02:04:00,53.6,15.6,30.04,SW,229,8.0,9.0,22,0.00,,,0.00,Wunderground v.1.15,2013-10-07 08:04:00,
2013-10-07 02:06:00,53.4,16.5,30.04,SW,236,9.0,11.0,23,0.00,,,0.00,Wunderground v.1.15,2013-10-07 08:06:00,
2013-10-07 02:08:00,53.3,17.4,30.04,WSW,246,8.0,11.0,24,0.00,,,0.00,Wunderground v.1.15,2013-10-07 08:08:00,
2013-10-07 02:10:00,53.1,15.2,30.04,South,190,8.0,8.0,22,0.00,,,0.00,Wunderground v.1.15,2013-10-07 08:10:00,
2013-10-07 02:13:00,53.1,16.2,30.04,SW,235,7.0,8.0,23,0.00,,,0.00,Wunderground v.1.15,2013-10-07 08:13:00,
2013-10-07 02:14:00,53.0,17.1,30.04,SW,231,7.0,8.0,24,0.00,,,0.00,Wunderground v.1.15,2013-10-07 08:14:00,
2013-10-07 02:15:00,52.9,16.1,30.04,South,191,7.0,8.0,23,0.00,,,0.00,Wunderground v.1.15,2013-10-07 08:15:00,
2013-10-07 02:17:00,52.8,16.9,30.04,SW,229,6.0,9.0,24,0.00,,,0.00,Wunderground v.1.15,2013-10-07 08:17:00,
2013-10-07 02:19:00,52.7,16.9,30.04,West,276,6.0,9.0,24,0.00,,,0.00,Wunderground v.1.15,2013-10-07 08:19:00,
2013-10-07 02:20:00,52.6,15.8,30.04,WSW,249,6.0,6.0,23,0.00,,,0.00,Wunderground v.1.15,2013-10-07 08:20:00,
2013-10-07 02:21:00,52.6,16.8,30.04,SW,215,5.0,6.0,24,0.00,,,0.00,Wunderground v.1.15,2013-10-07 08:21:00,
2013-10-07 02:23:00,52.3,16.5,30.04,SW,215,5.0,6.0,24,0.00,,,0.00,Wunderground v.1.15,2013-10-07 08:23:00,
2013-10-07 02:26:00,52.0,16.3,30.04,WSW,249,4.0,6.0,24,0.00,,,0.00,Wunderground v.1.15,2013-10-07 08:26:00,
2013-10-07 02:27:00,51.8,16.1,30.04,SSW,212,4.0,6.0,24,0.00,,,0.00,Wunderground v.1.15,2013-10-07 08:27:00,
2013-10-07 02:30:00,51.7,15.0,30.03,SW,218,4.0,4.0,23,0.00,,,0.00,Wunderground v.1.15,2013-10-07 08:30:00,
2013-10-07 02:31:00,51.7,16.0,30.03,WNW,294,4.0,4.0,24,0.00,,,0.00,Wunderground v.1.15,2013-10-07 08:31:00,
2013-10-07 02:35:00,52.4,13.5,30.03,SW,219,5.0,15.0,21,0.00,,,0.00,Wunderground v.1.15,2013-10-07 08:35:00,
2013-10-07 02:36:00,52.6,14.8,30.03,SW,225,6.0,15.0,22,0.00,,,0.00,Wunderground v.1.15,2013-10-07 08:36:00,
2013-10-07 02:37:00,52.5,15.7,30.03,SW,222,6.0,15.0,23,0.00,,,0.00,Wunderground v.1.15,2013-10-07 08:37:00,
2013-10-07 02:40:00,52.1,16.4,30.03,SSW,211,6.0,7.0,24,0.00,,,0.00,Wunderground v.1.15,2013-10-07 08:40:00,
2013-10-07 02:42:00,52.1,16.4,30.03,WSW,250,7.0,8.0,24,0.00,,,0.00,Wunderground v.1.15,2013-10-07 08:42:00,
2013-10-07 02:43:00,52.1,16.4,30.03,WSW,242,7.0,8.0,24,0.00,,,0.00,Wunderground v.1.15,2013-10-07 08:43:00,
2013-10-07 02:46:00,52.0,17.2,30.03,WSW,257,5.0,8.0,25,0.00,,,0.00,Wunderground v.1.15,2013-10-07 08:46:00,
2013-10-07 02:47:00,51.9,16.2,30.03,SSW,200,5.0,9.0,24,0.00,,,0.00,Wunderground v.1.15,2013-10-07 08:47:00,
2013-10-07 02:48:00,51.8,16.1,30.03,SE,139,5.0,9.0,24,0.00,,,0.00,Wunderground v.1.15,2013-10-07 08:48:00,
2013-10-07 02:49:00,51.9,16.2,30.03,SW,225,6.0,12.0,24,0.00,,,0.00,Wunderground v.1.15,2013-10-07 08:49:00,
2013-10-07 02:50:00,52.0,16.3,30.02,West,266,6.0,11.0,24,0.00,,,0.00,Wunderground v.1.15,2013-10-07 08:50:00,
2013-10-07 02:52:00,52.2,14.4,30.03,WSW,255,6.0,11.0,22,0.00,,,0.00,Wunderground v.1.15,2013-10-07 08:52:00,
2013-10-07 02:53:00,52.4,14.6,30.03,West,274,7.0,11.0,22,0.00,,,0.00,Wunderground v.1.15,2013-10-07 08:53:00,
2013-10-07 02:54:00,52.5,14.7,30.03,West,266,7.0,11.0,22,0.00,,,0.00,Wunderground v.1.15,2013-10-07 08:54:00,
2013-10-07 02:56:00,52.5,16.7,30.03,South,184,7.0,11.0,24,0.00,,,0.00,Wunderground v.1.15,2013-10-07 08:56:00,
2013-10-07 02:57:00,52.4,17.6,30.03,SW,224,7.0,11.0,25,0.00,,,0.00,Wunderground v.1.15,2013-10-07 08:57:00,
2013-10-07 02:58:00,52.2,17.4,30.03,West,266,7.0,11.0,25,0.00,,,0.00,Wunderground v.1.15,2013-10-07 08:58:00,
2013-10-07 02:59:00,52.0,17.2,30.03,SW,225,6.0,11.0,25,0.00,,,0.00,Wunderground v.1.15,2013-10-07 08:59:00,
2013-10-07 03:01:00,51.7,17.9,30.03,SW,231,6.0,6.0,26,0.00,,,0.00,Wunderground v.1.15,2013-10-07 09:01:00,
2013-10-07 03:02:00,51.6,17.8,30.03,SSW,212,5.0,7.0,26,0.00,,,0.00,Wunderground v.1.15,2013-10-07 09:02:00,
2013-10-07 03:03:00,51.5,17.7,30.03,SW,220,5.0,10.0,26,0.00,,,0.00,Wunderground v.1.15,2013-10-07 09:03:00,
2013-10-07 03:04:00,51.5,16.8,30.03,SW,218,5.0,10.0,25,0.00,,,0.00,Wunderground v.1.15,2013-10-07 09:04:00,
2013-10-07 03:07:00,52.1,15.4,30.03,West,259,6.0,10.0,23,0.00,,,0.00,Wunderground v.1.15,2013-10-07 09:07:00,
2013-10-07 03:10:00,52.3,16.5,30.02,WSW,246,6.0,6.0,24,0.00,,,0.00,Wunderground v.1.15,2013-10-07 09:10:00,
2013-10-07 03:11:00,52.3,16.5,30.02,SSW,205,7.0,9.0,24,0.00,,,0.00,Wunderground v.1.15,2013-10-07 09:11:00,
2013-10-07 03:13:00,52.4,16.6,30.03,SW,215,7.0,10.0,24,0.00,,,0.00,Wunderground v.1.15,2013-10-07 09:13:00,
2013-10-07 03:14:00,52.4,16.6,30.02,SSW,198,7.0,10.0,24,0.00,,,0.00,Wunderground v.1.15,2013-10-07 09:14:00,
2013-10-07 03:16:00,52.3,16.5,30.02,SW,226,7.0,10.0,24,0.00,,,0.00,Wunderground v.1.15,2013-10-07 09:16:00,
2013-10-07 03:17:00,52.4,16.6,30.02,SW,215,7.0,10.0,24,0.00,,,0.00,Wunderground v.1.15,2013-10-07 09:17:00,
2013-10-07 03:18:00,52.3,16.5,30.02,SW,233,7.0,10.0,24,0.00,,,0.00,Wunderground v.1.15,2013-10-07 09:18:00,
2013-10-07 03:21:00,52.2,16.4,30.02,WSW,246,6.0,9.0,24,0.00,,,0.00,Wunderground v.1.15,2013-10-07 09:21:00,
2013-10-07 03:22:00,52.1,16.4,30.02,WSW,253,6.0,9.0,24,0.00,,,0.00,Wunderground v.1.15,2013-10-07 09:22:00,
2013-10-07 03:23:00,52.0,17.2,30.02,SW,236,6.0,9.0,25,0.00,,,0.00,Wunderground v.1.15,2013-10-07 09:23:00,
2013-10-07 03:24:00,51.9,17.1,30.03,SW,232,6.0,10.0,25,0.00,,,0.00,Wunderground v.1.15,2013-10-07 09:24:00,
2013-10-07 03:28:00,52.2,16.4,30.02,SSW,211,5.0,10.0,24,0.00,,,0.00,Wunderground v.1.15,2013-10-07 09:28:00,
2013-10-07 03:30:00,52.2,16.4,30.02,West,274,5.0,5.0,24,0.00,,,0.00,Wunderground v.1.15,2013-10-07 09:30:00,
2013-10-07 03:31:00,52.2,17.4,30.02,West,271,5.0,5.0,25,0.00,,,0.00,Wunderground v.1.15,2013-10-07 09:31:00,
2013-10-07 03:37:00,52.1,17.3,30.02,SSW,208,4.0,6.0,25,0.00,,,0.00,Wunderground v.1.15,2013-10-07 09:37:00,
2013-10-07 03:38:00,52.0,16.3,30.02,SW,226,4.0,6.0,24,0.00,,,0.00,Wunderground v.1.15,2013-10-07 09:38:00,
2013-10-07 03:39:00,51.9,16.2,30.02,SW,214,3.0,6.0,24,0.00,,,0.00,Wunderground v.1.15,2013-10-07 09:39:00,
2013-10-07 03:40:00,51.8,16.1,30.02,WNW,302,3.0,3.0,24,0.00,,,0.00,Wunderground v.1.15,2013-10-07 09:40:00,
2013-10-07 03:44:00,51.5,15.8,30.02,SSW,207,3.0,5.0,24,0.00,,,0.00,Wunderground v.1.15,2013-10-07 09:44:00,
2013-10-07 03:46:00,51.7,16.0,30.02,South,175,4.0,9.0,24,0.00,,,0.00,Wunderground v.1.15,2013-10-07 09:46:00,
2013-10-07 03:47:00,51.7,17.0,30.02,SW,235,4.0,9.0,25,0.00,,,0.00,Wunderground v.1.15,2013-10-07 09:47:00,
2013-10-07 03:48:00,51.7,17.0,30.02,SW,236,4.0,9.0,25,0.00,,,0.00,Wunderground v.1.15,2013-10-07 09:48:00,
2013-10-07 03:50:00,51.5,17.7,30.02,WNW,294,4.0,4.0,26,0.00,,,0.00,Wunderground v.1.15,2013-10-07 09:50:00,
2013-10-07 03:52:00,51.5,18.6,30.02,WSW,255,5.0,8.0,27,0.00,,,0.00,Wunderground v.1.15,2013-10-07 09:52:00,
2013-10-07 03:53:00,51.4,18.5,30.01,SSW,207,5.0,10.0,27,0.00,,,0.00,Wunderground v.1.15,2013-10-07 09:53:00,
2013-10-07 03:55:00,51.5,18.6,30.02,WSW,243,6.0,13.0,27,0.00,,,0.00,Wunderground v.1.15,2013-10-07 09:55:00,
2013-10-07 03:57:00,51.7,17.0,30.01,SW,215,6.0,13.0,25,0.00,,,0.00,Wunderground v.1.15,2013-10-07 09:57:00,
2013-10-07 03:58:00,51.8,18.0,30.02,SSW,195,6.0,13.0,26,0.00,,,0.00,Wunderground v.1.15,2013-10-07 09:58:00,
2013-10-07 03:59:00,51.9,17.1,30.01,WSW,242,7.0,13.0,25,0.00,,,0.00,Wunderground v.1.15,2013-10-07 09:59:00,
2013-10-07 04:01:00,52.1,18.2,30.01,WSW,239,7.0,11.0,26,0.00,,,0.00,Wunderground v.1.15,2013-10-07 10:01:00,
2013-10-07 04:03:00,52.4,17.6,30.02,WSW,240,7.0,11.0,25,0.00,,,0.00,Wunderground v.1.15,2013-10-07 10:03:00,
2013-10-07 04:04:00,52.4,18.5,30.02,WSW,256,7.0,11.0,26,0.00,,,0.00,Wunderground v.1.15,2013-10-07 10:04:00,
2013-10-07 04:05:00,52.4,18.5,30.02,South,188,7.0,11.0,26,0.00,,,0.00,Wunderground v.1.15,2013-10-07 10:05:00,
2013-10-07 04:07:00,52.4,18.5,30.02,SW,218,7.0,11.0,26,0.00,,,0.00,Wunderground v.1.15,2013-10-07 10:07:00,
2013-10-07 04:09:00,52.3,19.3,30.01,WSW,249,7.0,11.0,27,0.00,,,0.00,Wunderground v.1.15,2013-10-07 10:09:00,
2013-10-07 04:11:00,52.2,18.3,30.01,SW,231,7.0,12.0,26,0.00,,,0.00,Wunderground v.1.15,2013-10-07 10:11:00,
2013-10-07 04:12:00,52.3,19.3,30.02,SW,236,7.0,12.0,27,0.00,,,0.00,Wunderground v.1.15,2013-10-07 10:12:00,
2013-10-07 04:15:00,52.2,19.2,30.01,SW,222,7.0,12.0,27,0.00,,,0.00,Wunderground v.1.15,2013-10-07 10:15:00,
2013-10-07 04:19:00,52.3,20.1,30.02,SW,232,8.0,12.0,28,0.00,,,0.00,Wunderground v.1.15,2013-10-07 10:19:00,
2013-10-07 04:20:00,52.3,20.1,30.02,SSW,208,8.0,11.0,28,0.00,,,0.00,Wunderground v.1.15,2013-10-07 10:20:00,
2013-10-07 04:22:00,52.2,20.0,30.02,SW,226,8.0,11.0,28,0.00,,,0.00,Wunderground v.1.15,2013-10-07 10:22:00,
2013-10-07 04:24:00,52.1,19.9,30.02,SW,214,8.0,11.0,28,0.00,,,0.00,Wunderground v.1.15,2013-10-07 10:24:00,
2013-10-07 04:25:00,52.1,19.9,30.01,WNW,293,8.0,11.0,28,0.00,,,0.00,Wunderground v.1.15,2013-10-07 10:25:00,
2013-10-07 04:26:00,52.0,19.9,30.01,West,278,8.0,11.0,28,0.00,,,0.00,Wunderground v.1.15,2013-10-07 10:26:00,
2013-10-07 04:28:00,51.9,19.8,30.01,SW,215,7.0,11.0,28,0.00,,,0.00,Wunderground v.1.15,2013-10-07 10:28:00,
2013-10-07 04:32:00,51.9,19.8,30.01,West,266,7.0,10.0,28,0.00,,,0.00,Wunderground v.1.15,2013-10-07 10:32:00,
2013-10-07 04:33:00,51.9,19.8,30.01,WNW,300,6.0,10.0,28,0.00,,,0.00,Wunderground v.1.15,2013-10-07 10:33:00,
2013-10-07 04:34:00,51.8,19.7,30.01,SW,221,6.0,10.0,28,0.00,,,0.00,Wunderground v.1.15,2013-10-07 10:34:00,
2013-10-07 04:35:00,51.8,19.7,30.01,WSW,250,6.0,10.0,28,0.00,,,0.00,Wunderground v.1.15,2013-10-07 10:35:00,
2013-10-07 04:38:00,51.6,20.3,30.01,West,266,5.0,10.0,29,0.00,,,0.00,Wunderground v.1.15,2013-10-07 10:38:00,
2013-10-07 04:39:00,51.6,20.3,30.01,West,277,5.0,10.0,29,0.00,,,0.00,Wunderground v.1.15,2013-10-07 10:39:00,
2013-10-07 04:41:00,51.5,20.2,30.01,WNW,297,5.0,5.0,29,0.00,,,0.00,Wunderground v.1.15,2013-10-07 10:41:00,
2013-10-07 04:42:00,51.4,20.2,30.01,NW,308,4.0,7.0,29,0.00,,,0.00,Wunderground v.1.15,2013-10-07 10:42:00,
2013-10-07 04:44:00,51.2,20.0,30.01,WNW,285,5.0,11.0,29,0.00,,,0.00,Wunderground v.1.15,2013-10-07 10:44:00,
2013-10-07 04:47:00,51.2,20.0,30.01,West,281,5.0,11.0,29,0.00,,,0.00,Wunderground v.1.15,2013-10-07 10:47:00,
2013-10-07 04:48:00,51.2,20.0,30.01,West,278,5.0,11.0,29,0.00,,,0.00,Wunderground v.1.15,2013-10-07 10:48:00,
2013-10-07 04:49:00,51.1,19.9,30.01,West,278,5.0,11.0,29,0.00,,,0.00,Wunderground v.1.15,2013-10-07 10:49:00,
2013-10-07 04:50:00,51.0,19.8,30.01,WNW,301,5.0,5.0,29,0.00,,,0.00,Wunderground v.1.15,2013-10-07 10:50:00,
2013-10-07 04:51:00,50.8,19.6,30.01,SW,231,5.0,5.0,29,0.00,,,0.00,Wunderground v.1.15,2013-10-07 10:51:00,
2013-10-07 04:55:00,50.0,19.7,30.01,West,272,4.0,8.0,30,0.00,,,0.00,Wunderground v.1.15,2013-10-07 10:55:00,
2013-10-07 04:56:00,50.0,18.9,30.01,WSW,256,4.0,8.0,29,0.00,,,0.00,Wunderground v.1.15,2013-10-07 10:56:00,
2013-10-07 04:57:00,50.0,18.9,30.01,West,266,4.0,8.0,29,0.00,,,0.00,Wunderground v.1.15,2013-10-07 10:57:00,
2013-10-07 05:00:00,50.0,18.9,30.01,WSW,248,4.0,4.0,29,0.00,,,0.00,Wunderground v.1.15,2013-10-07 11:00:00,
2013-10-07 05:02:00,49.7,18.7,30.01,WNW,297,4.0,4.0,29,0.00,,,0.00,Wunderground v.1.15,2013-10-07 11:02:00,
2013-10-07 05:03:00,49.5,18.5,30.01,WNW,297,4.0,6.0,29,0.00,,,0.00,Wunderground v.1.15,2013-10-07 11:03:00,
2013-10-07 05:06:00,47.9,17.9,30.01,NW,305,4.0,8.0,30,0.00,,,0.00,Wunderground v.1.15,2013-10-07 11:06:00,
2013-10-07 05:08:00,47.1,18.0,30.01,NW,305,4.0,8.0,31,0.00,,,0.00,Wunderground v.1.15,2013-10-07 11:08:00,
2013-10-07 05:09:00,47.0,17.1,30.01,NW,311,4.0,8.0,30,0.00,,,0.00,Wunderground v.1.15,2013-10-07 11:09:00,
2013-10-07 05:10:00,47.0,17.9,30.01,WNW,287,4.0,4.0,31,0.00,,,0.00,Wunderground v.1.15,2013-10-07 11:10:00,
2013-10-07 05:11:00,47.1,18.0,30.01,WNW,291,4.0,4.0,31,0.00,,,0.00,Wunderground v.1.15,2013-10-07 11:11:00,
2013-10-07 05:15:00,47.9,17.9,30.01,NW,308,4.0,6.0,30,0.00,,,0.00,Wunderground v.1.15,2013-10-07 11:15:00,
2013-10-07 05:16:00,47.5,16.8,30.00,NW,312,5.0,6.0,29,0.00,,,0.00,Wunderground v.1.15,2013-10-07 11:16:00,
2013-10-07 05:17:00,47.1,18.0,30.01,WNW,293,5.0,6.0,31,0.00,,,0.00,Wunderground v.1.15,2013-10-07 11:17:00,
2013-10-07 05:19:00,46.3,17.3,30.00,NW,304,4.0,6.0,31,0.00,,,0.00,Wunderground v.1.15,2013-10-07 11:19:00,
2013-10-07 05:20:00,45.8,17.6,30.01,NW,305,4.0,4.0,32,0.00,,,0.00,Wunderground v.1.15,2013-10-07 11:20:00,
2013-10-07 05:22:00,45.0,16.9,30.00,West,262,4.0,4.0,32,0.00,,,0.00,Wunderground v.1.15,2013-10-07 11:22:00,
2013-10-07 05:23:00,44.9,17.5,30.00,SSW,211,3.0,4.0,33,0.00,,,0.00,Wunderground v.1.15,2013-10-07 11:23:00,
2013-10-07 05:25:00,45.4,17.9,30.00,WNW,302,3.0,5.0,33,0.00,,,0.00,Wunderground v.1.15,2013-10-07 11:25:00,
2013-10-07 05:26:00,45.5,17.3,30.00,WNW,282,3.0,5.0,32,0.00,,,0.00,Wunderground v.1.15,2013-10-07 11:26:00,
2013-10-07 05:27:00,45.6,17.4,30.00,WNW,288,3.0,5.0,32,0.00,,,0.00,Wunderground v.1.15,2013-10-07 11:27:00,
2013-10-07 05:29:00,45.7,17.5,30.00,NW,305,3.0,5.0,32,0.00,,,0.00,Wunderground v.1.15,2013-10-07 11:29:00,
2013-10-07 05:33:00,45.7,17.5,30.00,NW,304,3.0,4.0,32,0.00,,,0.00,Wunderground v.1.15,2013-10-07 11:33:00,
2013-10-07 05:34:00,45.7,17.5,30.00,WNW,291,2.0,4.0,32,0.00,,,0.00,Wunderground v.1.15,2013-10-07 11:34:00,
2013-10-07 05:35:00,45.7,17.5,30.00,West,266,2.0,4.0,32,0.00,,,0.00,Wunderground v.1.15,2013-10-07 11:35:00,
2013-10-07 05:40:00,46.0,17.0,30.00,WNW,300,2.0,5.0,31,0.00,,,0.00,Wunderground v.1.15,2013-10-07 11:40:00,
2013-10-07 05:41:00,45.8,17.6,30.00,West,276,2.0,5.0,32,0.00,,,0.00,Wunderground v.1.15,2013-10-07 11:41:00,
2013-10-07 05:43:00,45.8,16.8,30.00,SSW,206,3.0,6.0,31,0.00,,,0.00,Wunderground v.1.15,2013-10-07 11:43:00,
2013-10-07 05:44:00,46.1,17.1,30.00,West,271,3.0,6.0,31,0.00,,,0.00,Wunderground v.1.15,2013-10-07 11:44:00,
2013-10-07 05:45:00,46.7,16.9,30.00,West,259,4.0,8.0,30,0.00,,,0.00,Wunderground v.1.15,2013-10-07 11:45:00,
2013-10-07 05:47:00,47.4,16.7,30.00,West,271,5.0,8.0,29,0.00,,,0.00,Wunderground v.1.15,2013-10-07 11:47:00,
2013-10-07 05:49:00,47.7,16.9,30.00,SW,234,6.0,11.0,29,0.00,,,0.00,Wunderground v.1.15,2013-10-07 11:49:00,
2013-10-07 05:51:00,48.3,16.7,30.00,WSW,256,6.0,9.0,28,0.00,,,0.00,Wunderground v.1.15,2013-10-07 11:51:00,
2013-10-07 05:52:00,48.5,16.8,30.00,WSW,246,7.0,9.0,28,0.00,,,0.00,Wunderground v.1.15,2013-10-07 11:52:00,
2013-10-07 05:53:00,48.7,17.0,30.00,West,263,7.0,9.0,28,0.00,,,0.00,Wunderground v.1.15,2013-10-07 11:53:00,
2013-10-07 05:56:00,48.9,17.2,30.00,West,266,7.0,9.0,28,0.00,,,0.00,Wunderground v.1.15,2013-10-07 11:56:00,
2013-10-07 05:58:00,48.9,17.2,30.00,West,266,7.0,9.0,28,0.00,,,0.00,Wunderground v.1.15,2013-10-07 11:58:00,
2013-10-07 05:59:00,49.0,17.3,30.00,West,270,7.0,9.0,28,0.00,,,0.00,Wunderground v.1.15,2013-10-07 11:59:00,
2013-10-07 06:00:00,49.1,17.3,30.00,WSW,240,6.0,6.0,28,0.00,,,0.00,Wunderground v.1.15,2013-10-07 12:00:00,
2013-10-07 06:02:00,49.2,17.4,30.00,WSW,246,6.0,10.0,28,0.00,,,0.00,Wunderground v.1.15,2013-10-07 12:02:00,
2013-10-07 06:07:00,49.5,16.9,30.00,West,270,6.0,10.0,27,0.00,,,0.00,Wunderground v.1.15,2013-10-07 12:07:00,
2013-10-07 06:08:00,49.5,16.9,30.00,West,269,6.0,10.0,27,0.00,,,0.00,Wunderground v.1.15,2013-10-07 12:08:00,
2013-10-07 06:09:00,49.5,16.9,30.00,WSW,246,7.0,10.0,27,0.00,,,0.00,Wunderground v.1.15,2013-10-07 12:09:00,
2013-10-07 06:10:00,49.5,16.9,30.00,West,264,7.0,7.0,27,0.00,,,0.00,Wunderground v.1.15,2013-10-07 12:10:00,
2013-10-07 06:12:00,49.6,16.9,30.00,WSW,252,7.0,8.0,27,0.00,,,0.00,Wunderground v.1.15,2013-10-07 12:12:00,
2013-10-07 06:14:00,49.4,17.6,30.00,West,281,7.0,9.0,28,0.00,,,0.00,Wunderground v.1.15,2013-10-07 12:14:00,
2013-10-07 06:17:00,49.4,16.8,30.00,West,276,6.0,9.0,27,0.00,,,0.00,Wunderground v.1.15,2013-10-07 12:17:00,
2013-10-07 06:18:00,49.4,16.8,29.99,SW,229,6.0,9.0,27,0.00,,,0.00,Wunderground v.1.15,2013-10-07 12:18:00,
2013-10-07 06:19:00,49.3,17.5,29.99,West,278,6.0,9.0,28,0.00,,,0.00,Wunderground v.1.15,2013-10-07 12:19:00,
2013-10-07 06:21:00,49.5,16.9,29.99,WSW,240,6.0,10.0,27,0.00,,,0.00,Wunderground v.1.15,2013-10-07 12:21:00,
2013-10-07 06:24:00,49.5,16.9,29.99,WSW,240,6.0,10.0,27,0.00,,,0.00,Wunderground v.1.15,2013-10-07 12:24:00,
2013-10-07 06:26:00,49.4,16.8,30.00,SW,229,6.0,10.0,27,0.00,,,0.00,Wunderground v.1.15,2013-10-07 12:26:00,
2013-10-07 06:28:00,49.7,15.2,29.99,WSW,257,6.0,10.0,25,0.00,,,0.00,Wunderground v.1.15,2013-10-07 12:28:00,
2013-10-07 06:31:00,50.0,16.4,29.99,WSW,253,6.0,8.0,26,0.00,,,0.00,Wunderground v.1.15,2013-10-07 12:31:00,
2013-10-07 06:33:00,50.0,17.3,29.99,West,273,6.0,8.0,27,0.00,,,0.00,Wunderground v.1.15,2013-10-07 12:33:00,
2013-10-07 06:34:00,49.9,17.2,29.99,WSW,255,5.0,8.0,27,0.00,,,0.00,Wunderground v.1.15,2013-10-07 12:34:00,
2013-10-07 06:35:00,49.8,17.1,29.99,West,280,5.0,8.0,27,0.00,,,0.00,Wunderground v.1.15,2013-10-07 12:35:00,
2013-10-07 06:37:00,49.7,17.9,29.99,West,259,5.0,8.0,28,0.00,,,0.00,Wunderground v.1.15,2013-10-07 12:37:00,
2013-10-07 06:42:00,49.5,16.9,30.00,SW,236,3.0,4.0,27,0.00,,,0.00,Wunderground v.1.15,2013-10-07 12:42:00,
2013-10-07 06:43:00,49.5,16.9,30.00,SW,214,4.0,4.0,27,0.00,,,0.00,Wunderground v.1.15,2013-10-07 12:43:00,
2013-10-07 06:47:00,49.4,15.9,30.00,West,266,3.0,5.0,26,0.00,,,0.00,Wunderground v.1.15,2013-10-07 12:47:00,
2013-10-07 06:49:00,49.8,15.3,30.00,WSW,255,4.0,6.0,25,0.00,,,0.00,Wunderground v.1.15,2013-10-07 12:49:00,
2013-10-07 06:50:00,49.9,15.4,30.00,West,260,4.0,4.0,25,0.00,,,0.00,Wunderground v.1.15,2013-10-07 12:50:00,
2013-10-07 06:52:00,50.3,15.8,30.00,WSW,239,4.0,5.0,25,0.00,,,0.00,Wunderground v.1.15,2013-10-07 12:52:00,
2013-10-07 06:55:00,50.4,15.8,29.99,SW,221,5.0,9.0,25,0.00,,,0.00,Wunderground v.1.15,2013-10-07 12:55:00,
2013-10-07 06:56:00,50.4,16.8,29.99,SSW,212,5.0,9.0,26,0.00,,,0.00,Wunderground v.1.15,2013-10-07 12:56:00,
2013-10-07 06:58:00,50.4,15.8,29.99,SW,224,6.0,9.0,25,0.00,,,0.00,Wunderground v.1.15,2013-10-07 12:58:00,
2013-10-07 07:02:00,50.6,16.0,29.99,SW,235,7.0,8.0,25,0.00,,,0.00,Wunderground v.1.15,2013-10-07 13:02:00,
2013-10-07 07:03:00,50.7,16.1,29.99,WNW,295,7.0,8.0,25,0.00,,,0.00,Wunderground v.1.15,2013-10-07 13:03:00,
2013-10-07 07:04:00,50.8,16.2,29.99,West,260,7.0,8.0,25,0.00,,,0.00,Wunderground v.1.15,2013-10-07 13:04:00,
2013-10-07 07:07:00,50.9,16.3,29.99,WSW,239,7.0,8.0,25,0.00,,,0.00,Wunderground v.1.15,2013-10-07 13:07:00,
2013-10-07 07:11:00,50.9,16.3,29.99,SW,226,7.0,8.0,25,0.00,,,0.00,Wunderground v.1.15,2013-10-07 13:11:00,
2013-10-07 07:12:00,50.9,16.3,29.99,SW,222,7.0,8.0,25,0.00,,,0.00,Wunderground v.1.15,2013-10-07 13:12:00,
2013-10-07 07:14:00,50.9,15.3,29.99,SW,222,7.0,9.0,24,0.00,,,0.00,Wunderground v.1.15,2013-10-07 13:14:00,
2013-10-07 07:16:00,51.0,16.4,29.99,West,266,7.0,9.0,25,0.00,,,0.00,Wunderground v.1.15,2013-10-07 13:16:00,
2013-10-07 07:18:00,51.0,16.4,29.99,WSW,243,7.0,9.0,25,0.00,,,0.00,Wunderground v.1.15,2013-10-07 13:18:00,
2013-10-07 07:20:00,50.9,16.3,29.99,WSW,255,7.0,7.0,25,0.00,,,0.00,Wunderground v.1.15,2013-10-07 13:20:00,
2013-10-07 07:21:00,50.8,16.2,29.99,WSW,249,6.0,7.0,25,0.00,,,0.00,Wunderground v.1.15,2013-10-07 13:21:00,
2013-10-07 07:24:00,50.7,17.0,29.99,West,262,6.0,7.0,26,0.00,,,0.00,Wunderground v.1.15,2013-10-07 13:24:00,
2013-10-07 07:25:00,50.6,16.0,29.99,West,281,6.0,7.0,25,0.00,,,0.00,Wunderground v.1.15,2013-10-07 13:25:00,
2013-10-07 07:26:00,50.5,16.8,29.99,WNW,294,5.0,7.0,26,0.00,,,0.00,Wunderground v.1.15,2013-10-07 13:26:00,
2013-10-07 07:27:00,50.5,16.8,29.99,WSW,255,5.0,9.0,26,0.00,,,0.00,Wunderground v.1.15,2013-10-07 13:27:00,
2013-10-07 07:28:00,50.5,16.8,29.99,SW,215,5.0,9.0,26,0.00,,,0.00,Wunderground v.1.15,2013-10-07 13:28:00,
2013-10-07 07:31:00,50.8,16.2,29.99,WSW,243,6.0,9.0,25,0.00,,,0.00,Wunderground v.1.15,2013-10-07 13:31:00,
2013-10-07 07:32:00,51.0,16.4,29.99,WSW,243,6.0,9.0,25,0.00,,,0.00,Wunderground v.1.15,2013-10-07 13:32:00,
2013-10-07 07:34:00,51.3,16.6,29.99,WSW,252,7.0,10.0,25,0.00,,,0.00,Wunderground v.1.15,2013-10-07 13:34:00,
2013-10-07 07:35:00,51.4,16.7,29.99,WSW,246,7.0,10.0,25,0.00,,,0.00,Wunderground v.1.15,2013-10-07 13:35:00,
2013-10-07 07:36:00,51.5,16.8,29.99,SW,218,7.0,10.0,25,0.00,,,0.00,Wunderground v.1.15,2013-10-07 13:36:00,
2013-10-07 07:38:00,51.5,16.8,29.99,WSW,257,7.0,10.0,25,0.00,,,0.00,Wunderground v.1.15,2013-10-07 13:38:00,
2013-10-07 07:41:00,51.7,17.0,29.99,SW,218,6.0,7.0,25,0.00,,,0.00,Wunderground v.1.15,2013-10-07 13:41:00,
2013-10-07 07:42:00,51.7,17.0,29.98,SSW,211,6.0,8.0,25,0.00,,,0.00,Wunderground v.1.15,2013-10-07 13:42:00,
2013-10-07 07:46:00,51.9,17.1,29.99,SSW,210,6.0,8.0,25,0.00,,,0.00,Wunderground v.1.15,2013-10-07 13:46:00,
2013-10-07 07:48:00,52.0,17.2,29.99,SW,231,5.0,8.0,25,0.00,,,0.00,Wunderground v.1.15,2013-10-07 13:48:00,
2013-10-07 07:49:00,52.0,17.2,29.99,WSW,246,5.0,8.0,25,0.00,,,0.00,Wunderground v.1.15,2013-10-07 13:49:00,
2013-10-07 07:51:00,52.1,17.3,29.99,West,262,4.0,4.0,25,0.00,,,0.00,Wunderground v.1.15,2013-10-07 13:51:00,
2013-10-07 07:53:00,52.3,18.4,29.99,West,262,3.0,4.0,26,0.00,,,0.00,Wunderground v.1.15,2013-10-07 13:53:00,
2013-10-07 07:54:00,52.5,17.6,29.99,SSE,168,2.0,4.0,25,0.00,,,0.00,Wunderground v.1.15,2013-10-07 13:54:00,
2013-10-07 07:57:00,53.0,17.1,29.99,WSW,242,1.0,6.0,24,0.00,,,0.00,Wunderground v.1.15,2013-10-07 13:57:00,
2013-10-07 07:59:00,53.1,17.2,29.99,WSW,238,2.0,6.0,24,0.00,,,0.00,Wunderground v.1.15,2013-10-07 13:59:00,
2013-10-07 08:00:00,53.2,17.3,29.99,West,260,3.0,5.0,24,0.00,,,0.00,Wunderground v.1.15,2013-10-07 14:00:00,
2013-10-07 08:01:00,53.3,17.4,29.99,West,267,3.0,7.0,24,0.00,,,0.00,Wunderground v.1.15,2013-10-07 14:01:00,
2013-10-07 08:04:00,53.5,17.5,29.99,WSW,246,5.0,7.0,24,0.00,,,0.00,Wunderground v.1.15,2013-10-07 14:04:00,
2013-10-07 08:06:00,53.6,17.6,29.99,WSW,249,6.0,9.0,24,0.00,,,0.00,Wunderground v.1.15,2013-10-07 14:06:00,
2013-10-07 08:08:00,53.8,17.8,29.99,WSW,257,6.0,9.0,24,0.00,,,0.00,Wunderground v.1.15,2013-10-07 14:08:00,
2013-10-07 08:10:00,53.8,17.8,29.99,SW,232,6.0,9.0,24,0.00,,,0.00,Wunderground v.1.15,2013-10-07 14:10:00,
2013-10-07 08:12:00,54.0,18.0,29.99,WSW,252,6.0,9.0,24,0.00,,,0.00,Wunderground v.1.15,2013-10-07 14:12:00,
2013-10-07 08:13:00,54.1,18.1,29.99,SW,222,7.0,9.0,24,0.00,,,0.00,Wunderground v.1.15,2013-10-07 14:13:00,
2013-10-07 08:15:00,54.3,18.2,29.99,WSW,256,6.0,9.0,24,0.00,,,0.00,Wunderground v.1.15,2013-10-07 14:15:00,
2013-10-07 08:16:00,54.4,17.3,29.99,WSW,246,6.0,9.0,23,0.00,,,0.00,Wunderground v.1.15,2013-10-07 14:16:00,
2013-10-07 08:17:00,54.5,17.4,29.99,SW,227,7.0,9.0,23,0.00,,,0.00,Wunderground v.1.15,2013-10-07 14:17:00,
2013-10-07 08:18:00,54.6,17.5,29.99,SW,235,6.0,9.0,23,0.00,,,0.00,Wunderground v.1.15,2013-10-07 14:18:00,
2013-10-07 08:19:00,54.8,16.6,29.98,West,281,6.0,9.0,22,0.00,,,0.00,Wunderground v.1.15,2013-10-07 14:19:00,
2013-10-07 08:21:00,55.2,14.8,29.99,SW,236,6.0,7.0,20,0.00,,,0.00,Wunderground v.1.15,2013-10-07 14:21:00,
2013-10-07 08:23:00,55.5,16.1,29.99,WSW,242,6.0,13.0,21,0.00,,,0.00,Wunderground v.1.15,2013-10-07 14:23:00,
2013-10-07 08:24:00,55.6,16.2,29.99,West,262,7.0,13.0,21,0.00,,,0.00,Wunderground v.1.15,2013-10-07 14:24:00,
2013-10-07 08:25:00,55.7,16.3,29.99,SW,231,7.0,13.0,21,0.00,,,0.00,Wunderground v.1.15,2013-10-07 14:25:00,
2013-10-07 08:29:00,55.9,17.6,29.98,WSW,238,7.0,13.0,22,0.00,,,0.00,Wunderground v.1.15,2013-10-07 14:29:00,
2013-10-07 08:32:00,56.1,16.6,29.98,WSW,241,7.0,9.0,21,0.00,,,0.00,Wunderground v.1.15,2013-10-07 14:32:00,
2013-10-07 08:35:00,56.3,16.8,29.98,WSW,247,7.0,9.0,21,0.00,,,0.00,Wunderground v.1.15,2013-10-07 14:35:00,
2013-10-07 08:36:00,56.5,17.0,29.98,WSW,249,7.0,9.0,21,0.00,,,0.00,Wunderground v.1.15,2013-10-07 14:36:00,
2013-10-07 08:37:00,56.5,17.0,29.98,SW,229,7.0,11.0,21,0.00,,,0.00,Wunderground v.1.15,2013-10-07 14:37:00,
2013-10-07 08:38:00,56.6,17.1,29.98,SSW,195,7.0,11.0,21,0.00,,,0.00,Wunderground v.1.15,2013-10-07 14:38:00,
2013-10-07 08:39:00,56.7,17.1,29.98,WSW,242,7.0,11.0,21,0.00,,,0.00,Wunderground v.1.15,2013-10-07 14:39:00,
2013-10-07 08:40:00,56.7,17.1,29.98,WNW,283,7.0,7.0,21,0.00,,,0.00,Wunderground v.1.15,2013-10-07 14:40:00,
2013-10-07 08:43:00,57.0,17.4,29.98,West,270,7.0,7.0,21,0.00,,,0.00,Wunderground v.1.15,2013-10-07 14:43:00,
2013-10-07 08:45:00,57.1,16.3,29.98,West,271,6.0,8.0,20,0.00,,,0.00,Wunderground v.1.15,2013-10-07 14:45:00,
2013-10-07 08:46:00,57.2,17.6,29.98,WNW,287,6.0,8.0,21,0.00,,,0.00,Wunderground v.1.15,2013-10-07 14:46:00,
2013-10-07 08:49:00,57.4,16.6,29.98,West,274,6.0,8.0,20,0.00,,,0.00,Wunderground v.1.15,2013-10-07 14:49:00,
2013-10-07 08:50:00,57.5,16.7,29.98,WSW,242,6.0,8.0,20,0.00,,,0.00,Wunderground v.1.15,2013-10-07 14:50:00,
2013-10-07 08:54:00,57.7,16.8,29.98,WSW,256,8.0,17.0,20,0.00,,,0.00,Wunderground v.1.15,2013-10-07 14:54:00,
2013-10-07 08:55:00,57.7,16.8,29.97,WSW,252,8.0,17.0,20,0.00,,,0.00,Wunderground v.1.15,2013-10-07 14:55:00,
2013-10-07 08:58:00,57.9,17.0,29.97,SW,229,9.0,17.0,20,0.00,,,0.00,Wunderground v.1.15,2013-10-07 14:58:00,
2013-10-07 08:59:00,58.0,17.1,29.97,SW,236,9.0,17.0,20,0.00,,,0.00,Wunderground v.1.15,2013-10-07 14:59:00,
2013-10-07 09:01:00,58.1,16.0,29.97,SSW,210,9.0,10.0,19,0.00,,,0.00,Wunderground v.1.15,2013-10-07 15:01:00,
2013-10-07 09:03:00,58.2,16.1,29.97,SW,215,9.0,10.0,19,0.00,,,0.00,Wunderground v.1.15,2013-10-07 15:03:00,
2013-10-07 09:04:00,58.3,16.2,29.97,WNW,285,9.0,11.0,19,0.00,,,0.00,Wunderground v.1.15,2013-10-07 15:04:00,
2013-10-07 09:06:00,58.4,16.2,29.97,West,262,9.0,11.0,19,0.00,,,0.00,Wunderground v.1.15,2013-10-07 15:06:00,
2013-10-07 09:08:00,58.5,16.3,29.97,West,270,9.0,11.0,19,0.00,,,0.00,Wunderground v.1.15,2013-10-07 15:08:00,
2013-10-07 09:10:00,58.6,16.4,29.97,West,271,9.0,9.0,19,0.00,,,0.00,Wunderground v.1.15,2013-10-07 15:10:00,
2013-10-07 09:12:00,58.8,16.6,29.97,West,270,9.0,9.0,19,0.00,,,0.00,Wunderground v.1.15,2013-10-07 15:12:00,
2013-10-07 09:13:00,58.8,15.3,29.97,WNW,284,9.0,9.0,18,0.00,,,0.00,Wunderground v.1.15,2013-10-07 15:13:00,
2013-10-07 09:15:00,59.0,16.7,29.97,WSW,249,8.0,14.0,19,0.00,,,0.00,Wunderground v.1.15,2013-10-07 15:15:00,
2013-10-07 09:20:00,59.3,15.7,29.97,SW,231,7.0,9.0,18,0.00,,,0.00,Wunderground v.1.15,2013-10-07 15:20:00,
2013-10-07 09:21:00,59.4,15.8,29.97,SW,235,8.0,9.0,18,0.00,,,0.00,Wunderground v.1.15,2013-10-07 15:21:00,
2013-10-07 09:23:00,59.6,16.0,29.97,SW,215,7.0,9.0,18,0.00,,,0.00,Wunderground v.1.15,2013-10-07 15:23:00,
2013-10-07 09:25:00,59.7,16.1,29.97,SW,224,7.0,9.0,18,0.00,,,0.00,Wunderground v.1.15,2013-10-07 15:25:00,
2013-10-07 09:28:00,59.9,17.5,29.97,West,267,6.0,9.0,19,0.00,,,0.00,Wunderground v.1.15,2013-10-07 15:28:00,
2013-10-07 09:30:00,60.1,16.4,29.97,SW,228,6.0,6.0,18,0.00,,,0.00,Wunderground v.1.15,2013-10-07 15:30:00,
2013-10-07 09:32:00,60.2,16.5,29.97,West,259,5.0,6.0,18,0.00,,,0.00,Wunderground v.1.15,2013-10-07 15:32:00,
2013-10-07 09:33:00,60.3,15.2,29.97,West,269,5.0,8.0,17,0.00,,,0.00,Wunderground v.1.15,2013-10-07 15:33:00,
2013-10-07 09:34:00,60.4,15.3,29.96,WSW,252,5.0,11.0,17,0.00,,,0.00,Wunderground v.1.15,2013-10-07 15:34:00,
2013-10-07 09:35:00,60.5,15.4,29.96,WSW,250,5.0,11.0,17,0.00,,,0.00,Wunderground v.1.15,2013-10-07 15:35:00,
2013-10-07 09:38:00,60.8,15.6,29.96,West,262,6.0,11.0,17,0.00,,,0.00,Wunderground v.1.15,2013-10-07 15:38:00,
2013-10-07 09:40:00,61.0,17.1,29.96,West,280,6.0,6.0,18,0.00,,,0.00,Wunderground v.1.15,2013-10-07 15:40:00,
2013-10-07 09:41:00,61.1,14.5,29.96,West,264,6.0,7.0,16,0.00,,,0.00,Wunderground v.1.15,2013-10-07 15:41:00,
2013-10-07 09:42:00,61.1,15.9,29.96,SSW,207,6.0,7.0,17,0.00,,,0.00,Wunderground v.1.15,2013-10-07 15:42:00,
2013-10-07 09:44:00,61.2,16.0,29.96,WSW,255,6.0,7.0,17,0.00,,,0.00,Wunderground v.1.15,2013-10-07 15:44:00,
2013-10-07 09:46:00,61.4,16.1,29.96,WSW,257,5.0,7.0,17,0.00,,,0.00,Wunderground v.1.15,2013-10-07 15:46:00,
2013-10-07 09:47:00,61.4,13.3,29.96,WSW,252,5.0,9.0,15,0.00,,,0.00,Wunderground v.1.15,2013-10-07 15:47:00,
2013-10-07 09:50:00,61.6,14.9,29.96,WSW,245,6.0,6.0,16,0.00,,,0.00,Wunderground v.1.15,2013-10-07 15:50:00,
2013-10-07 09:52:00,61.6,16.3,29.96,West,273,6.0,7.0,17,0.00,,,0.00,Wunderground v.1.15,2013-10-07 15:52:00,
2013-10-07 09:53:00,61.6,16.3,29.96,WSW,252,6.0,9.0,17,0.00,,,0.00,Wunderground v.1.15,2013-10-07 15:53:00,
2013-10-07 09:56:00,61.7,11.9,29.96,WNW,288,7.0,9.0,14,0.00,,,0.00,Wunderground v.1.15,2013-10-07 15:56:00,
2013-10-07 09:59:00,61.7,13.5,29.95,WSW,242,7.0,11.0,15,0.00,,,0.00,Wunderground v.1.15,2013-10-07 15:59:00,
2013-10-07 10:01:00,61.8,13.6,29.95,West,259,7.0,8.0,15,0.00,,,0.00,Wunderground v.1.15,2013-10-07 16:01:00,
2013-10-07 10:02:00,61.8,13.6,29.95,WSW,242,8.0,8.0,15,0.00,,,0.00,Wunderground v.1.15,2013-10-07 16:02:00,
2013-10-07 10:03:00,61.9,13.7,29.95,SW,218,8.0,8.0,15,0.00,,,0.00,Wunderground v.1.15,2013-10-07 16:03:00,
2013-10-07 10:04:00,62.1,15.3,29.95,West,274,8.0,8.0,16,0.00,,,0.00,Wunderground v.1.15,2013-10-07 16:04:00,
2013-10-07 10:05:00,62.1,12.3,29.95,WSW,252,8.0,9.0,14,0.00,,,0.00,Wunderground v.1.15,2013-10-07 16:05:00,
2013-10-07 10:07:00,62.2,13.9,29.95,SSW,211,7.0,9.0,15,0.00,,,0.00,Wunderground v.1.15,2013-10-07 16:07:00,
2013-10-07 10:11:00,62.6,14.2,29.95,WNW,290,7.0,11.0,15,0.00,,,0.00,Wunderground v.1.15,2013-10-07 16:11:00,
2013-10-07 10:13:00,62.6,14.2,29.95,SW,225,7.0,11.0,15,0.00,,,0.00,Wunderground v.1.15,2013-10-07 16:13:00,
2013-10-07 10:15:00,62.8,14.4,29.95,West,273,7.0,11.0,15,0.00,,,0.00,Wunderground v.1.15,2013-10-07 16:15:00,
2013-10-07 10:17:00,62.8,14.4,29.95,SW,221,7.0,11.0,15,0.00,,,0.00,Wunderground v.1.15,2013-10-07 16:17:00,
2013-10-07 10:19:00,63.0,13.0,29.95,SW,225,8.0,11.0,14,0.00,,,0.00,Wunderground v.1.15,2013-10-07 16:19:00,
2013-10-07 10:21:00,63.2,14.7,29.94,SW,214,8.0,8.0,15,0.00,,,0.00,Wunderground v.1.15,2013-10-07 16:21:00,
2013-10-07 10:23:00,63.2,20.2,29.94,West,270,7.0,10.0,19,0.00,,,0.00,Wunderground v.1.15,2013-10-07 16:23:00,
2013-10-07 10:24:00,63.3,14.8,29.94,SSW,208,7.0,10.0,15,0.00,,,0.00,Wunderground v.1.15,2013-10-07 16:24:00,
2013-10-07 10:25:00,63.3,16.3,29.94,SW,236,7.0,10.0,16,0.00,,,0.00,Wunderground v.1.15,2013-10-07 16:25:00,
2013-10-07 10:27:00,63.4,14.9,29.94,South,186,7.0,11.0,15,0.00,,,0.00,Wunderground v.1.15,2013-10-07 16:27:00,
2013-10-07 10:31:00,63.5,13.4,29.94,SW,233,7.0,9.0,14,0.00,,,0.00,Wunderground v.1.15,2013-10-07 16:31:00,
2013-10-07 10:33:00,63.7,11.9,29.94,WSW,255,7.0,11.0,13,0.00,,,0.00,Wunderground v.1.15,2013-10-07 16:33:00,
2013-10-07 10:34:00,63.8,13.6,29.93,SW,226,7.0,11.0,14,0.00,,,0.00,Wunderground v.1.15,2013-10-07 16:34:00,
2013-10-07 10:35:00,63.8,15.2,29.93,WSW,238,8.0,11.0,15,0.00,,,0.00,Wunderground v.1.15,2013-10-07 16:35:00,
2013-10-07 10:36:00,63.8,13.6,29.94,SW,233,8.0,11.0,14,0.00,,,0.00,Wunderground v.1.15,2013-10-07 16:36:00,
2013-10-07 10:37:00,63.9,13.7,29.94,SW,224,8.0,11.0,14,0.00,,,0.00,Wunderground v.1.15,2013-10-07 16:37:00,
2013-10-07 10:41:00,64.1,13.9,29.94,West,275,7.0,8.0,14,0.00,,,0.00,Wunderground v.1.15,2013-10-07 16:41:00,
2013-10-07 10:44:00,64.5,17.3,29.93,SSW,208,7.0,9.0,16,0.00,,,0.00,Wunderground v.1.15,2013-10-07 16:44:00,
2013-10-07 10:45:00,64.6,15.8,29.93,West,264,7.0,9.0,15,0.00,,,0.00,Wunderground v.1.15,2013-10-07 16:45:00,
2013-10-07 10:46:00,64.8,16.0,29.93,SW,229,6.0,9.0,15,0.00,,,0.00,Wunderground v.1.15,2013-10-07 16:46:00,
2013-10-07 10:47:00,64.9,16.1,29.93,WSW,256,6.0,9.0,15,0.00,,,0.00,Wunderground v.1.15,2013-10-07 16:47:00,
2013-10-07 10:48:00,65.0,14.6,29.93,WNW,298,6.0,9.0,14,0.00,,,0.00,Wunderground v.1.15,2013-10-07 16:48:00,
2013-10-07 10:53:00,65.4,11.4,29.93,SW,217,6.0,11.0,12,0.00,,,0.00,Wunderground v.1.15,2013-10-07 16:53:00,
2013-10-07 10:54:00,65.3,13.1,29.93,SSW,207,6.0,11.0,13,0.00,,,0.00,Wunderground v.1.15,2013-10-07 16:54:00,
2013-10-07 10:55:00,65.4,13.2,29.93,WSW,255,7.0,11.0,13,0.00,,,0.00,Wunderground v.1.15,2013-10-07 16:55:00,
2013-10-07 10:56:00,65.5,15.0,29.93,SW,226,7.0,11.0,14,0.00,,,0.00,Wunderground v.1.15,2013-10-07 16:56:00,
2013-10-07 10:58:00,65.5,13.3,29.93,West,262,7.0,13.0,13,0.00,,,0.00,Wunderground v.1.15,2013-10-07 16:58:00,
2013-10-07 11:00:00,65.3,13.1,29.93,SSW,198,8.0,8.0,13,0.00,,,0.00,Wunderground v.1.15,2013-10-07 17:00:00,
2013-10-07 11:02:00,65.3,13.1,29.93,WSW,239,8.0,8.0,13,0.00,,,0.00,Wunderground v.1.15,2013-10-07 17:02:00,
2013-10-07 11:05:00,65.6,15.1,29.93,SW,228,7.0,11.0,14,0.00,,,0.00,Wunderground v.1.15,2013-10-07 17:05:00,
2013-10-07 11:06:00,65.7,13.4,29.93,WSW,249,7.0,11.0,13,0.00,,,0.00,Wunderground v.1.15,2013-10-07 17:06:00,
2013-10-07 11:08:00,65.8,11.7,29.93,WNW,284,7.0,11.0,12,0.00,,,0.00,Wunderground v.1.15,2013-10-07 17:08:00,
2013-10-07 11:10:00,65.8,11.7,29.92,West,259,7.0,7.0,12,0.00,,,0.00,Wunderground v.1.15,2013-10-07 17:10:00,
2013-10-07 11:12:00,65.8,11.7,29.93,WSW,240,7.0,12.0,12,0.00,,,0.00,Wunderground v.1.15,2013-10-07 17:12:00,
2013-10-07 11:14:00,65.9,11.8,29.92,WSW,246,7.0,12.0,12,0.00,,,0.00,Wunderground v.1.15,2013-10-07 17:14:00,
2013-10-07 11:18:00,66.0,11.9,29.92,WNW,290,8.0,12.0,12,0.00,,,0.00,Wunderground v.1.15,2013-10-07 17:18:00,
2013-10-07 11:19:00,66.0,13.7,29.92,WNW,286,8.0,12.0,13,0.00,,,0.00,Wunderground v.1.15,2013-10-07 17:19:00,
2013-10-07 11:24:00,66.1,11.9,29.92,West,264,7.0,10.0,12,0.00,,,0.00,Wunderground v.1.15,2013-10-07 17:24:00,
2013-10-07 11:25:00,66.2,13.8,29.92,West,266,7.0,10.0,13,0.00,,,0.00,Wunderground v.1.15,2013-10-07 17:25:00,
2013-10-07 11:28:00,66.3,13.9,29.91,West,259,7.0,10.0,13,0.00,,,0.00,Wunderground v.1.15,2013-10-07 17:28:00,
2013-10-07 11:29:00,66.4,12.2,29.91,WSW,255,7.0,10.0,12,0.00,,,0.00,Wunderground v.1.15,2013-10-07 17:29:00,
2013-10-07 11:30:00,66.3,10.1,29.91,West,260,7.0,11.0,11,0.00,,,0.00,Wunderground v.1.15,2013-10-07 17:30:00,
2013-10-07 11:31:00,66.2,10.1,29.91,WSW,248,8.0,11.0,11,0.00,,,0.00,Wunderground v.1.15,2013-10-07 17:31:00,
2013-10-07 11:35:00,66.2,10.1,29.91,SW,219,9.0,13.0,11,0.00,,,0.00,Wunderground v.1.15,2013-10-07 17:35:00,
2013-10-07 11:36:00,66.2,10.1,29.91,WNW,292,9.0,15.0,11,0.00,,,0.00,Wunderground v.1.15,2013-10-07 17:36:00,
2013-10-07 11:37:00,66.2,10.1,29.91,West,277,10.0,15.0,11,0.00,,,0.00,Wunderground v.1.15,2013-10-07 17:37:00,
2013-10-07 11:39:00,66.1,10.0,29.91,WSW,245,10.0,15.0,11,0.00,,,0.00,Wunderground v.1.15,2013-10-07 17:39:00,
2013-10-07 11:41:00,66.2,10.1,29.91,West,260,10.0,12.0,11,0.00,,,0.00,Wunderground v.1.15,2013-10-07 17:41:00,
2013-10-07 11:42:00,66.3,12.1,29.91,West,276,11.0,12.0,12,0.00,,,0.00,Wunderground v.1.15,2013-10-07 17:42:00,
2013-10-07 11:43:00,66.4,12.2,29.90,WSW,257,11.0,12.0,12,0.00,,,0.00,Wunderground v.1.15,2013-10-07 17:43:00,
2013-10-07 11:44:00,66.5,12.3,29.90,West,276,10.0,12.0,12,0.00,,,0.00,Wunderground v.1.15,2013-10-07 17:44:00,
2013-10-07 11:47:00,66.7,12.4,29.90,WSW,250,9.0,12.0,12,0.00,,,0.00,Wunderground v.1.15,2013-10-07 17:47:00,
2013-10-07 11:48:00,66.7,10.4,29.90,West,263,9.0,12.0,11,0.00,,,0.00,Wunderground v.1.15,2013-10-07 17:48:00,
2013-10-07 11:50:00,66.8,10.5,29.90,SW,221,9.0,9.0,11,0.00,,,0.00,Wunderground v.1.15,2013-10-07 17:50:00,
2013-10-07 11:52:00,66.9,10.6,29.90,SSW,212,9.0,11.0,11,0.00,,,0.00,Wunderground v.1.15,2013-10-07 17:52:00,
2013-10-07 11:54:00,67.1,10.8,29.90,WNW,293,9.0,11.0,11,0.00,,,0.00,Wunderground v.1.15,2013-10-07 17:54:00,
2013-10-07 11:58:00,67.3,10.9,29.90,West,259,9.0,11.0,11,0.00,,,0.00,Wunderground v.1.15,2013-10-07 17:58:00,
2013-10-07 12:00:00,67.5,6.6,29.89,SW,221,9.0,12.0,9,0.00,,,0.00,Wunderground v.1.15,2013-10-07 18:00:00,
2013-10-07 12:01:00,67.5,8.9,29.89,WSW,240,9.0,12.0,10,0.00,,,0.00,Wunderground v.1.15,2013-10-07 18:01:00,
2013-10-07 12:03:00,67.4,8.9,29.90,SW,226,10.0,12.0,10,0.00,,,0.00,Wunderground v.1.15,2013-10-07 18:03:00,
2013-10-07 12:06:00,67.5,11.1,29.89,SW,235,10.0,14.0,11,0.00,,,0.00,Wunderground v.1.15,2013-10-07 18:06:00,
2013-10-07 12:08:00,67.6,6.7,29.89,West,271,10.0,14.0,9,0.00,,,0.00,Wunderground v.1.15,2013-10-07 18:08:00,
2013-10-07 12:09:00,67.4,8.9,29.89,SW,221,10.0,14.0,10,0.00,,,0.00,Wunderground v.1.15,2013-10-07 18:09:00,
2013-10-07 12:13:00,67.4,8.9,29.89,WSW,253,10.0,18.0,10,0.00,,,0.00,Wunderground v.1.15,2013-10-07 18:13:00,
2013-10-07 12:15:00,67.4,8.9,29.89,SSW,211,11.0,18.0,10,0.00,,,0.00,Wunderground v.1.15,2013-10-07 18:15:00,
2013-10-07 12:19:00,67.6,9.0,29.89,West,267,11.0,18.0,10,0.00,,,0.00,Wunderground v.1.15,2013-10-07 18:19:00,
2013-10-07 12:20:00,67.6,6.7,29.89,West,271,11.0,11.0,9,0.00,,,0.00,Wunderground v.1.15,2013-10-07 18:20:00,
2013-10-07 12:21:00,67.6,9.0,29.89,West,260,11.0,11.0,10,0.00,,,0.00,Wunderground v.1.15,2013-10-07 18:21:00,
2013-10-07 12:23:00,67.7,6.7,29.89,West,273,10.0,17.0,9,0.00,,,0.00,Wunderground v.1.15,2013-10-07 18:23:00,
2013-10-07 12:25:00,67.7,11.2,29.89,WSW,245,11.0,17.0,11,0.00,,,0.00,Wunderground v.1.15,2013-10-07 18:25:00,
2013-10-07 12:26:00,67.7,9.1,29.89,West,280,11.0,17.0,10,0.00,,,0.00,Wunderground v.1.15,2013-10-07 18:26:00,
2013-10-07 12:29:00,67.9,6.9,29.88,WSW,238,10.0,17.0,9,0.00,,,0.00,Wunderground v.1.15,2013-10-07 18:29:00,
2013-10-07 12:30:00,67.9,9.2,29.88,WSW,251,10.0,13.0,10,0.00,,,0.00,Wunderground v.1.15,2013-10-07 18:30:00,
2013-10-07 12:32:00,68.0,9.3,29.88,SSE,150,10.0,13.0,10,0.00,,,0.00,Wunderground v.1.15,2013-10-07 18:32:00,
2013-10-07 12:35:00,68.3,9.5,29.88,WSW,242,10.0,13.0,10,0.00,,,0.00,Wunderground v.1.15,2013-10-07 18:35:00,
2013-10-07 12:36:00,68.3,7.2,29.88,SSW,203,10.0,13.0,9,0.00,,,0.00,Wunderground v.1.15,2013-10-07 18:36:00,
2013-10-07 12:37:00,68.4,9.6,29.88,SW,226,9.0,15.0,10,0.00,,,0.00,Wunderground v.1.15,2013-10-07 18:37:00,
2013-10-07 12:38:00,68.4,7.3,29.88,WNW,287,10.0,15.0,9,0.00,,,0.00,Wunderground v.1.15,2013-10-07 18:38:00,
2013-10-07 12:39:00,68.4,9.6,29.88,WSW,242,10.0,15.0,10,0.00,,,0.00,Wunderground v.1.15,2013-10-07 18:39:00,
2013-10-07 12:40:00,68.4,9.6,29.88,WNW,290,10.0,10.0,10,0.00,,,0.00,Wunderground v.1.15,2013-10-07 18:40:00,
2013-10-07 12:41:00,68.4,9.6,29.88,WSW,245,10.0,13.0,10,0.00,,,0.00,Wunderground v.1.15,2013-10-07 18:41:00,
2013-10-07 12:45:00,68.6,11.9,29.87,WSW,239,10.0,14.0,11,0.00,,,0.00,Wunderground v.1.15,2013-10-07 18:45:00,
2013-10-07 12:46:00,68.6,9.8,29.87,WSW,256,10.0,14.0,10,0.00,,,0.00,Wunderground v.1.15,2013-10-07 18:46:00,
2013-10-07 12:47:00,68.6,13.9,29.87,SW,218,10.0,14.0,12,0.00,,,0.00,Wunderground v.1.15,2013-10-07 18:47:00,
2013-10-07 12:48:00,68.7,14.0,29.87,WSW,248,10.0,14.0,12,0.00,,,0.00,Wunderground v.1.15,2013-10-07 18:48:00,
2013-10-07 12:49:00,68.8,12.1,29.87,WSW,250,9.0,14.0,11,0.00,,,0.00,Wunderground v.1.15,2013-10-07 18:49:00,
2013-10-07 12:51:00,69.0,14.2,29.87,West,269,9.0,9.0,12,0.00,,,0.00,Wunderground v.1.15,2013-10-07 18:51:00,
2013-10-07 12:53:00,69.0,14.2,29.87,WNW,283,8.0,9.0,12,0.00,,,0.00,Wunderground v.1.15,2013-10-07 18:53:00,
2013-10-07 12:54:00,69.0,12.2,29.87,West,260,8.0,11.0,11,0.00,,,0.00,Wunderground v.1.15,2013-10-07 18:54:00,
2013-10-07 12:55:00,69.1,12.3,29.87,WSW,252,8.0,12.0,11,0.00,,,0.00,Wunderground v.1.15,2013-10-07 18:55:00,
2013-10-07 12:57:00,69.0,12.2,29.87,SW,217,8.0,12.0,11,0.00,,,0.00,Wunderground v.1.15,2013-10-07 18:57:00,
2013-10-07 12:59:00,68.8,9.9,29.87,SW,226,9.0,12.0,10,0.00,,,0.00,Wunderground v.1.15,2013-10-07 18:59:00,
2013-10-07 13:00:00,68.8,12.1,29.87,SW,221,9.0,9.0,11,0.00,,,0.00,Wunderground v.1.15,2013-10-07 19:00:00,
2013-10-07 13:01:00,68.8,14.1,29.86,SSW,198,9.0,11.0,12,0.00,,,0.00,Wunderground v.1.15,2013-10-07 19:01:00,
2013-10-07 13:03:00,68.9,12.2,29.86,WSW,245,9.0,11.0,11,0.00,,,0.00,Wunderground v.1.15,2013-10-07 19:03:00,
2013-10-07 13:04:00,69.0,14.2,29.86,SSW,205,9.0,13.0,12,0.00,,,0.00,Wunderground v.1.15,2013-10-07 19:04:00,
2013-10-07 13:06:00,69.0,14.2,29.86,South,183,9.0,13.0,12,0.00,,,0.00,Wunderground v.1.15,2013-10-07 19:06:00,
2013-10-07 13:07:00,69.1,16.1,29.86,SW,235,9.0,13.0,13,0.00,,,0.00,Wunderground v.1.15,2013-10-07 19:07:00,
2013-10-07 13:11:00,69.0,12.2,29.86,SSW,210,9.0,13.0,11,0.00,,,0.00,Wunderground v.1.15,2013-10-07 19:11:00,
2013-10-07 13:12:00,68.9,14.1,29.86,WSW,245,10.0,14.0,12,0.00,,,0.00,Wunderground v.1.15,2013-10-07 19:12:00,
2013-10-07 13:13:00,68.8,15.9,29.86,WSW,257,10.0,14.0,13,0.00,,,0.00,Wunderground v.1.15,2013-10-07 19:13:00,
2013-10-07 13:16:00,68.6,13.9,29.86,WSW,240,11.0,18.0,12,0.00,,,0.00,Wunderground v.1.15,2013-10-07 19:16:00,
2013-10-07 13:18:00,68.6,15.7,29.85,WSW,255,11.0,18.0,13,0.00,,,0.00,Wunderground v.1.15,2013-10-07 19:18:00,
2013-10-07 13:20:00,68.5,15.7,29.86,West,263,11.0,11.0,13,0.00,,,0.00,Wunderground v.1.15,2013-10-07 19:20:00,
2013-10-07 13:21:00,68.4,15.6,29.86,West,263,11.0,11.0,13,0.00,,,0.00,Wunderground v.1.15,2013-10-07 19:21:00,
2013-10-07 13:22:00,68.4,15.6,29.85,West,267,11.0,11.0,13,0.00,,,0.00,Wunderground v.1.15,2013-10-07 19:22:00,
2013-10-07 13:24:00,68.3,15.5,29.85,SW,229,11.0,14.0,13,0.00,,,0.00,Wunderground v.1.15,2013-10-07 19:24:00,
2013-10-07 13:26:00,68.2,15.4,29.85,SW,236,10.0,14.0,13,0.00,,,0.00,Wunderground v.1.15,2013-10-07 19:26:00,
2013-10-07 13:28:00,68.3,13.7,29.85,SW,217,10.0,14.0,12,0.00,,,0.00,Wunderground v.1.15,2013-10-07 19:28:00,
2013-10-07 13:29:00,68.3,15.5,29.85,SW,236,10.0,14.0,13,0.00,,,0.00,Wunderground v.1.15,2013-10-07 19:29:00,
2013-10-07 13:30:00,68.3,15.5,29.85,WSW,251,10.0,10.0,13,0.00,,,0.00,Wunderground v.1.15,2013-10-07 19:30:00,
2013-10-07 13:31:00,68.2,17.1,29.85,SW,230,10.0,14.0,14,0.00,,,0.00,Wunderground v.1.15,2013-10-07 19:31:00,
2013-10-07 13:35:00,68.2,17.1,29.85,WSW,249,11.0,14.0,14,0.00,,,0.00,Wunderground v.1.15,2013-10-07 19:35:00,
2013-10-07 13:37:00,68.1,17.0,29.85,WSW,240,11.0,17.0,14,0.00,,,0.00,Wunderground v.1.15,2013-10-07 19:37:00,
2013-10-07 13:38:00,68.2,18.7,29.85,SSW,205,11.0,17.0,15,0.00,,,0.00,Wunderground v.1.15,2013-10-07 19:38:00,
2013-10-07 13:39:00,68.3,17.2,29.85,SW,228,11.0,17.0,14,0.00,,,0.00,Wunderground v.1.15,2013-10-07 19:39:00,
2013-10-07 13:40:00,68.3,18.8,29.85,SW,229,11.0,11.0,15,0.00,,,0.00,Wunderground v.1.15,2013-10-07 19:40:00,
2013-10-07 13:43:00,68.2,17.1,29.85,SW,224,10.0,12.0,14,0.00,,,0.00,Wunderground v.1.15,2013-10-07 19:43:00,
2013-10-07 13:44:00,68.1,18.7,29.85,SW,234,10.0,15.0,15,0.00,,,0.00,Wunderground v.1.15,2013-10-07 19:44:00,
2013-10-07 13:45:00,68.0,17.0,29.85,WSW,243,11.0,15.0,14,0.00,,,0.00,Wunderground v.1.15,2013-10-07 19:45:00,
2013-10-07 13:46:00,68.0,17.0,29.85,SW,219,11.0,15.0,14,0.00,,,0.00,Wunderground v.1.15,2013-10-07 19:46:00,
2013-10-07 13:48:00,68.0,17.0,29.85,SW,217,11.0,15.0,14,0.00,,,0.00,Wunderground v.1.15,2013-10-07 19:48:00,
2013-10-07 13:49:00,67.9,15.2,29.85,SSW,203,11.0,15.0,13,0.00,,,0.00,Wunderground v.1.15,2013-10-07 19:49:00,
2013-10-07 13:52:00,68.2,18.7,29.84,SW,232,11.0,11.0,15,0.00,,,0.00,Wunderground v.1.15,2013-10-07 19:52:00,
2013-10-07 13:53:00,68.2,18.7,29.85,SW,236,11.0,11.0,15,0.00,,,0.00,Wunderground v.1.15,2013-10-07 19:53:00,
2013-10-07 13:54:00,68.3,18.8,29.85,SSW,211,10.0,11.0,15,0.00,,,0.00,Wunderground v.1.15,2013-10-07 19:54:00,
2013-10-07 13:55:00,68.3,17.2,29.84,SW,236,10.0,11.0,14,0.00,,,0.00,Wunderground v.1.15,2013-10-07 19:55:00,
2013-10-07 13:56:00,68.2,17.1,29.84,SW,224,10.0,11.0,14,0.00,,,0.00,Wunderground v.1.15,2013-10-07 19:56:00,
2013-10-07 13:59:00,68.5,19.0,29.84,SSW,212,9.0,15.0,15,0.00,,,0.00,Wunderground v.1.15,2013-10-07 19:59:00,
2013-10-07 14:00:00,68.4,17.3,29.84,SSW,211,9.0,9.0,14,0.00,,,0.00,Wunderground v.1.15,2013-10-07 20:00:00,
2013-10-07 14:01:00,68.3,18.8,29.84,SW,215,9.0,9.0,15,0.00,,,0.00,Wunderground v.1.15,2013-10-07 20:01:00,
2013-10-07 14:06:00,68.2,18.7,29.84,WSW,240,9.0,11.0,15,0.00,,,0.00,Wunderground v.1.15,2013-10-07 20:06:00,
2013-10-07 14:07:00,68.1,18.7,29.84,SSW,205,10.0,11.0,15,0.00,,,0.00,Wunderground v.1.15,2013-10-07 20:07:00,
2013-10-07 14:08:00,68.1,18.7,29.84,SW,221,10.0,11.0,15,0.00,,,0.00,Wunderground v.1.15,2013-10-07 20:08:00,
2013-10-07 14:13:00,68.1,20.2,29.84,SW,217,10.0,14.0,16,0.00,,,0.00,Wunderground v.1.15,2013-10-07 20:13:00,
2013-10-07 14:14:00,68.1,20.2,29.84,WSW,252,10.0,14.0,16,0.00,,,0.00,Wunderground v.1.15,2013-10-07 20:14:00,
2013-10-07 14:16:00,68.0,21.5,29.83,SSW,209,10.0,14.0,17,0.00,,,0.00,Wunderground v.1.15,2013-10-07 20:16:00,
2013-10-07 14:19:00,67.8,21.4,29.83,SW,215,11.0,24.0,17,0.00,,,0.00,Wunderground v.1.15,2013-10-07 20:19:00,
2013-10-07 14:20:00,67.7,19.8,29.83,WSW,249,11.0,13.0,16,0.00,,,0.00,Wunderground v.1.15,2013-10-07 20:20:00,
2013-10-07 14:22:00,67.5,19.7,29.83,SW,215,12.0,17.0,16,0.00,,,0.00,Wunderground v.1.15,2013-10-07 20:22:00,
2013-10-07 14:23:00,67.4,19.6,29.83,SSW,207,12.0,17.0,16,0.00,,,0.00,Wunderground v.1.15,2013-10-07 20:23:00,
2013-10-07 14:26:00,67.4,19.6,29.83,SSW,209,12.0,17.0,16,0.00,,,0.00,Wunderground v.1.15,2013-10-07 20:26:00,
2013-10-07 14:30:00,67.3,19.5,29.83,WSW,252,12.0,16.0,16,0.00,,,0.00,Wunderground v.1.15,2013-10-07 20:30:00,
2013-10-07 14:31:00,67.3,19.5,29.83,SSW,194,13.0,16.0,16,0.00,,,0.00,Wunderground v.1.15,2013-10-07 20:31:00,
2013-10-07 14:36:00,67.3,20.9,29.82,SW,233,13.0,16.0,17,0.00,,,0.00,Wunderground v.1.15,2013-10-07 20:36:00,
2013-10-07 14:38:00,67.2,20.9,29.82,SSE,168,13.0,16.0,17,0.00,,,0.00,Wunderground v.1.15,2013-10-07 20:38:00,
2013-10-07 14:40:00,67.3,22.3,29.82,WSW,239,12.0,19.0,18,0.00,,,0.00,Wunderground v.1.15,2013-10-07 20:40:00,
2013-10-07 14:44:00,67.5,22.5,29.83,SW,218,12.0,19.0,18,0.00,,,0.00,Wunderground v.1.15,2013-10-07 20:44:00,
2013-10-07 14:45:00,67.5,22.5,29.82,SSW,201,12.0,19.0,18,0.00,,,0.00,Wunderground v.1.15,2013-10-07 20:45:00,
2013-10-07 14:46:00,67.5,21.1,29.82,WSW,238,11.0,19.0,17,0.00,,,0.00,Wunderground v.1.15,2013-10-07 20:46:00,
2013-10-07 14:47:00,67.5,21.1,29.82,SW,215,11.0,19.0,17,0.00,,,0.00,Wunderground v.1.15,2013-10-07 20:47:00,
2013-10-07 14:49:00,67.4,21.0,29.82,SW,224,12.0,19.0,17,0.00,,,0.00,Wunderground v.1.15,2013-10-07 20:49:00,
2013-10-07 14:50:00,67.5,21.1,29.82,WSW,242,12.0,17.0,17,0.00,,,0.00,Wunderground v.1.15,2013-10-07 20:50:00,
2013-10-07 14:52:00,67.5,21.1,29.82,SSW,207,12.0,17.0,17,0.00,,,0.00,Wunderground v.1.15,2013-10-07 20:52:00,
2013-10-07 14:54:00,67.4,22.4,29.82,SW,228,13.0,17.0,18,0.00,,,0.00,Wunderground v.1.15,2013-10-07 20:54:00,
2013-10-07 14:55:00,67.5,22.5,29.82,WSW,252,12.0,17.0,18,0.00,,,0.00,Wunderground v.1.15,2013-10-07 20:55:00,
2013-10-07 14:56:00,67.6,21.2,29.82,WSW,252,12.0,17.0,17,0.00,,,0.00,Wunderground v.1.15,2013-10-07 20:56:00,
2013-10-07 14:58:00,67.6,21.2,29.82,South,181,12.0,17.0,17,0.00,,,0.00,Wunderground v.1.15,2013-10-07 20:58:00,
2013-10-07 15:02:00,67.3,19.5,29.82,SW,221,12.0,15.0,16,0.00,,,0.00,Wunderground v.1.15,2013-10-07 21:02:00,
2013-10-07 15:03:00,67.3,20.9,29.82,WSW,256,12.0,15.0,17,0.00,,,0.00,Wunderground v.1.15,2013-10-07 21:03:00,
2013-10-07 15:04:00,67.4,21.0,29.82,SSW,210,12.0,15.0,17,0.00,,,0.00,Wunderground v.1.15,2013-10-07 21:04:00,
2013-10-07 15:05:00,67.5,21.1,29.81,SW,236,12.0,15.0,17,0.00,,,0.00,Wunderground v.1.15,2013-10-07 21:05:00,
2013-10-07 15:06:00,67.5,21.1,29.81,SSW,194,12.0,15.0,17,0.00,,,0.00,Wunderground v.1.15,2013-10-07 21:06:00,
2013-10-07 15:08:00,67.7,19.8,29.81,SW,233,13.0,15.0,16,0.00,,,0.00,Wunderground v.1.15,2013-10-07 21:08:00,
2013-10-07 15:09:00,67.8,21.4,29.81,SW,215,12.0,15.0,17,0.00,,,0.00,Wunderground v.1.15,2013-10-07 21:09:00,
2013-10-07 15:10:00,67.9,20.0,29.81,SSW,204,12.0,12.0,16,0.00,,,0.00,Wunderground v.1.15,2013-10-07 21:10:00,
2013-10-07 15:11:00,67.9,20.0,29.81,SW,229,12.0,12.0,16,0.00,,,0.00,Wunderground v.1.15,2013-10-07 21:11:00,
2013-10-07 15:12:00,68.0,21.5,29.81,SW,221,11.0,13.0,17,0.00,,,0.00,Wunderground v.1.15,2013-10-07 21:12:00,
2013-10-07 15:14:00,67.9,20.0,29.81,WSW,242,11.0,13.0,16,0.00,,,0.00,Wunderground v.1.15,2013-10-07 21:14:00,
2013-10-07 15:17:00,68.1,20.2,29.81,SW,229,11.0,13.0,16,0.00,,,0.00,Wunderground v.1.15,2013-10-07 21:17:00,
2013-10-07 15:20:00,68.5,21.9,29.81,WSW,255,10.0,10.0,17,0.00,,,0.00,Wunderground v.1.15,2013-10-07 21:20:00,
2013-10-07 15:23:00,68.4,20.4,29.81,WSW,252,10.0,15.0,16,0.00,,,0.00,Wunderground v.1.15,2013-10-07 21:23:00,
2013-10-07 15:24:00,68.3,20.3,29.81,WSW,252,10.0,15.0,16,0.00,,,0.00,Wunderground v.1.15,2013-10-07 21:24:00,
2013-10-07 15:29:00,68.3,18.8,29.81,SSW,204,10.0,15.0,15,0.00,,,0.00,Wunderground v.1.15,2013-10-07 21:29:00,
2013-10-07 15:30:00,68.3,20.3,29.81,SW,236,10.0,12.0,16,0.00,,,0.00,Wunderground v.1.15,2013-10-07 21:30:00,
2013-10-07 15:32:00,68.2,18.7,29.81,SSW,211,10.0,12.0,15,0.00,,,0.00,Wunderground v.1.15,2013-10-07 21:32:00,
2013-10-07 15:33:00,68.1,18.7,29.81,SSW,213,10.0,13.0,15,0.00,,,0.00,Wunderground v.1.15,2013-10-07 21:33:00,
2013-10-07 15:35:00,68.1,18.7,29.81,SW,229,10.0,13.0,15,0.00,,,0.00,Wunderground v.1.15,2013-10-07 21:35:00,
2013-10-07 15:36:00,68.1,18.7,29.81,WSW,245,10.0,13.0,15,0.00,,,0.00,Wunderground v.1.15,2013-10-07 21:36:00,
2013-10-07 15:37:00,68.1,20.2,29.81,WSW,250,10.0,13.0,16,0.00,,,0.00,Wunderground v.1.15,2013-10-07 21:37:00,
2013-10-07 15:38:00,68.2,18.7,29.81,SW,215,10.0,13.0,15,0.00,,,0.00,Wunderground v.1.15,2013-10-07 21:38:00,
2013-10-07 15:44:00,68.1,20.2,29.81,SW,235,10.0,16.0,16,0.00,,,0.00,Wunderground v.1.15,2013-10-07 21:44:00,
2013-10-07 15:45:00,68.0,18.6,29.81,SSW,205,10.0,16.0,15,0.00,,,0.00,Wunderground v.1.15,2013-10-07 21:45:00,
2013-10-07 15:49:00,68.1,20.2,29.81,WSW,245,10.0,16.0,16,0.00,,,0.00,Wunderground v.1.15,2013-10-07 21:49:00,
2013-10-07 15:53:00,68.0,21.5,29.81,SW,215,10.0,12.0,17,0.00,,,0.00,Wunderground v.1.15,2013-10-07 21:53:00,
2013-10-07 15:54:00,68.0,21.5,29.81,SSW,212,10.0,12.0,17,0.00,,,0.00,Wunderground v.1.15,2013-10-07 21:54:00,
2013-10-07 15:55:00,67.9,21.4,29.81,WNW,284,10.0,12.0,17,0.00,,,0.00,Wunderground v.1.15,2013-10-07 21:55:00,
2013-10-07 15:56:00,68.0,21.5,29.81,SSW,209,9.0,12.0,17,0.00,,,0.00,Wunderground v.1.15,2013-10-07 21:56:00,
2013-10-07 15:59:00,68.1,20.2,29.80,SW,219,9.0,12.0,16,0.00,,,0.00,Wunderground v.1.15,2013-10-07 21:59:00,
2013-10-07 16:01:00,68.1,21.6,29.80,SW,229,9.0,9.0,17,0.00,,,0.00,Wunderground v.1.15,2013-10-07 22:01:00,
2013-10-07 16:03:00,68.2,21.7,29.80,SW,232,9.0,9.0,17,0.00,,,0.00,Wunderground v.1.15,2013-10-07 22:03:00,
2013-10-07 16:06:00,68.1,21.6,29.80,West,264,9.0,10.0,17,0.00,,,0.00,Wunderground v.1.15,2013-10-07 22:06:00,
2013-10-07 16:07:00,68.1,20.2,29.80,West,264,9.0,14.0,16,0.00,,,0.00,Wunderground v.1.15,2013-10-07 22:07:00,
2013-10-07 16:10:00,68.3,21.8,29.80,West,270,8.0,8.0,17,0.00,,,0.00,Wunderground v.1.15,2013-10-07 22:10:00,
2013-10-07 16:12:00,68.5,21.9,29.80,South,176,7.0,9.0,17,0.00,,,0.00,Wunderground v.1.15,2013-10-07 22:12:00,
2013-10-07 16:13:00,68.5,20.5,29.80,West,280,7.0,9.0,16,0.00,,,0.00,Wunderground v.1.15,2013-10-07 22:13:00,
2013-10-07 16:17:00,68.4,18.9,29.80,SW,232,7.0,12.0,15,0.00,,,0.00,Wunderground v.1.15,2013-10-07 22:17:00,
2013-10-07 16:18:00,68.5,17.4,29.80,SSW,193,7.0,14.0,14,0.00,,,0.00,Wunderground v.1.15,2013-10-07 22:18:00,
2013-10-07 16:21:00,68.4,18.9,29.80,SW,229,8.0,13.0,15,0.00,,,0.00,Wunderground v.1.15,2013-10-07 22:21:00,
2013-10-07 16:22:00,68.5,19.0,29.80,WSW,239,8.0,13.0,15,0.00,,,0.00,Wunderground v.1.15,2013-10-07 22:22:00,
2013-10-07 16:25:00,68.4,18.9,29.80,WSW,252,8.0,13.0,15,0.00,,,0.00,Wunderground v.1.15,2013-10-07 22:25:00,
2013-10-07 16:26:00,68.5,19.0,29.80,SW,236,8.0,13.0,15,0.00,,,0.00,Wunderground v.1.15,2013-10-07 22:26:00,
2013-10-07 16:29:00,68.6,17.4,29.80,WSW,245,8.0,13.0,14,0.00,,,0.00,Wunderground v.1.15,2013-10-07 22:29:00,
2013-10-07 16:30:00,68.6,15.7,29.79,West,275,8.0,8.0,13,0.00,,,0.00,Wunderground v.1.15,2013-10-07 22:30:00,
2013-10-07 16:33:00,68.7,15.8,29.79,SW,219,8.0,12.0,13,0.00,,,0.00,Wunderground v.1.15,2013-10-07 22:33:00,
2013-10-07 16:34:00,68.6,15.7,29.79,SW,235,8.0,12.0,13,0.00,,,0.00,Wunderground v.1.15,2013-10-07 22:34:00,
2013-10-07 16:35:00,68.6,17.4,29.79,SW,222,8.0,12.0,14,0.00,,,0.00,Wunderground v.1.15,2013-10-07 22:35:00,
2013-10-07 16:36:00,68.7,17.5,29.80,NW,304,7.0,12.0,14,0.00,,,0.00,Wunderground v.1.15,2013-10-07 22:36:00,
2013-10-07 16:38:00,68.7,15.8,29.79,SSW,204,7.0,12.0,13,0.00,,,0.00,Wunderground v.1.15,2013-10-07 22:38:00,
2013-10-07 16:40:00,68.8,15.9,29.79,SSW,209,6.0,6.0,13,0.00,,,0.00,Wunderground v.1.15,2013-10-07 22:40:00,
2013-10-07 16:41:00,68.9,17.7,29.79,SSW,210,6.0,7.0,14,0.00,,,0.00,Wunderground v.1.15,2013-10-07 22:41:00,
2013-10-07 16:42:00,68.9,16.0,29.79,SW,224,6.0,10.0,13,0.00,,,0.00,Wunderground v.1.15,2013-10-07 22:42:00,
2013-10-07 16:46:00,69.0,16.0,29.79,WSW,239,6.0,10.0,13,0.00,,,0.00,Wunderground v.1.15,2013-10-07 22:46:00,
2013-10-07 16:47:00,69.1,16.1,29.79,SW,221,5.0,10.0,13,0.00,,,0.00,Wunderground v.1.15,2013-10-07 22:47:00,
2013-10-07 16:50:00,69.1,16.1,29.79,SW,228,6.0,6.0,13,0.00,,,0.00,Wunderground v.1.15,2013-10-07 22:50:00,
2013-10-07 16:51:00,69.0,14.2,29.79,SW,221,6.0,13.0,12,0.00,,,0.00,Wunderground v.1.15,2013-10-07 22:51:00,
2013-10-07 16:52:00,69.0,14.2,29.79,WSW,255,6.0,13.0,12,0.00,,,0.00,Wunderground v.1.15,2013-10-07 22:52:00,
2013-10-07 16:56:00,68.9,14.1,29.79,SW,221,7.0,13.0,12,0.00,,,0.00,Wunderground v.1.15,2013-10-07 22:56:00,
2013-10-07 16:57:00,69.0,16.0,29.79,SSW,204,7.0,13.0,13,0.00,,,0.00,Wunderground v.1.15,2013-10-07 22:57:00,
2013-10-07 16:58:00,69.0,16.0,29.79,WSW,245,7.0,13.0,13,0.00,,,0.00,Wunderground v.1.15,2013-10-07 22:58:00,
2013-10-07 16:59:00,69.1,14.3,29.79,SW,224,7.0,13.0,12,0.00,,,0.00,Wunderground v.1.15,2013-10-07 22:59:00,
2013-10-07 17:00:00,69.1,12.3,29.79,NNW,335,7.0,9.0,11,0.00,,,0.00,Wunderground v.1.15,2013-10-07 23:00:00,
2013-10-07 17:03:00,68.9,10.0,29.79,West,275,7.0,13.0,10,0.00,,,0.00,Wunderground v.1.15,2013-10-07 23:03:00,
2013-10-07 17:04:00,68.8,9.9,29.79,West,270,7.0,13.0,10,0.00,,,0.00,Wunderground v.1.15,2013-10-07 23:04:00,
2013-10-07 17:07:00,68.7,12.0,29.79,SW,219,8.0,13.0,11,0.00,,,0.00,Wunderground v.1.15,2013-10-07 23:07:00,
2013-10-07 17:09:00,68.6,11.9,29.78,SSW,209,8.0,13.0,11,0.00,,,0.00,Wunderground v.1.15,2013-10-07 23:09:00,
2013-10-07 17:11:00,68.5,9.7,29.78,WNW,294,8.0,12.0,10,0.00,,,0.00,Wunderground v.1.15,2013-10-07 23:11:00,
2013-10-07 17:15:00,68.2,11.6,29.78,SSW,211,9.0,13.0,11,0.00,,,0.00,Wunderground v.1.15,2013-10-07 23:15:00,
2013-10-07 17:16:00,68.2,11.6,29.78,SW,228,9.0,13.0,11,0.00,,,0.00,Wunderground v.1.15,2013-10-07 23:16:00,
2013-10-07 17:17:00,68.2,11.6,29.78,SW,231,9.0,13.0,11,0.00,,,0.00,Wunderground v.1.15,2013-10-07 23:17:00,
2013-10-07 17:19:00,68.2,11.6,29.78,West,267,9.0,13.0,11,0.00,,,0.00,Wunderground v.1.15,2013-10-07 23:19:00,
2013-10-07 17:22:00,68.1,9.4,29.78,WSW,246,8.0,12.0,10,0.00,,,0.00,Wunderground v.1.15,2013-10-07 23:22:00,
2013-10-07 17:24:00,67.8,11.3,29.78,WSW,242,7.0,12.0,11,0.00,,,0.00,Wunderground v.1.15,2013-10-07 23:24:00,
2013-10-07 17:25:00,67.7,11.2,29.78,WSW,243,7.0,12.0,11,0.00,,,0.00,Wunderground v.1.15,2013-10-07 23:25:00,
2013-10-07 17:29:00,67.2,10.8,29.78,WSW,252,9.0,12.0,11,0.00,,,0.00,Wunderground v.1.15,2013-10-07 23:29:00,
2013-10-07 17:31:00,67.1,10.8,29.77,West,280,10.0,14.0,11,0.00,,,0.00,Wunderground v.1.15,2013-10-07 23:31:00,
2013-10-07 17:33:00,67.0,12.6,29.78,SW,226,9.0,17.0,12,0.00,,,0.00,Wunderground v.1.15,2013-10-07 23:33:00,
2013-10-07 17:34:00,67.0,10.7,29.78,West,263,10.0,17.0,11,0.00,,,0.00,Wunderground v.1.15,2013-10-07 23:34:00,
2013-10-07 17:36:00,66.8,10.5,29.78,SW,235,10.0,17.0,11,0.00,,,0.00,Wunderground v.1.15,2013-10-07 23:36:00,
2013-10-07 17:37:00,66.7,10.4,29.77,West,262,9.0,17.0,11,0.00,,,0.00,Wunderground v.1.15,2013-10-07 23:37:00,
2013-10-07 17:38:00,66.7,10.4,29.77,SW,218,10.0,17.0,11,0.00,,,0.00,Wunderground v.1.15,2013-10-07 23:38:00,
2013-10-07 17:41:00,66.4,12.2,29.77,SSW,208,9.0,10.0,12,0.00,,,0.00,Wunderground v.1.15,2013-10-07 23:41:00,
2013-10-07 17:43:00,66.2,12.0,29.78,SW,236,9.0,10.0,12,0.00,,,0.00,Wunderground v.1.15,2013-10-07 23:43:00,
2013-10-07 17:47:00,65.8,11.7,29.78,West,260,9.0,10.0,12,0.00,,,0.00,Wunderground v.1.15,2013-10-07 23:47:00,
2013-10-07 17:48:00,65.7,13.4,29.78,West,270,9.0,11.0,13,0.00,,,0.00,Wunderground v.1.15,2013-10-07 23:48:00,
2013-10-07 17:51:00,65.6,11.5,29.78,West,267,10.0,18.0,12,0.00,,,0.00,Wunderground v.1.15,2013-10-07 23:51:00,
2013-10-07 17:52:00,65.6,11.5,29.77,West,263,10.0,18.0,12,0.00,,,0.00,Wunderground v.1.15,2013-10-07 23:52:00,
2013-10-07 17:53:00,65.5,11.5,29.77,West,271,10.0,18.0,12,0.00,,,0.00,Wunderground v.1.15,2013-10-07 23:53:00,
2013-10-07 17:56:00,65.4,13.2,29.77,West,277,11.0,18.0,13,0.00,,,0.00,Wunderground v.1.15,2013-10-07 23:56:00,
2013-10-07 17:59:00,65.3,13.1,29.77,West,271,11.0,18.0,13,0.00,,,0.00,Wunderground v.1.15,2013-10-07 23:59:00,
2013-10-07 18:00:00,65.2,13.0,29.77,WSW,242,10.0,10.0,13,0.00,,,0.00,Wunderground v.1.15,2013-10-08 00:00:00,
2013-10-07 18:01:00,65.2,13.0,29.77,West,269,10.0,10.0,13,0.00,,,0.00,Wunderground v.1.15,2013-10-08 00:01:00,
2013-10-07 18:02:00,65.2,13.0,29.77,SW,215,9.0,10.0,13,0.00,,,0.00,Wunderground v.1.15,2013-10-08 00:02:00,
2013-10-07 18:04:00,65.0,12.9,29.77,West,276,8.0,10.0,13,0.00,,,0.00,Wunderground v.1.15,2013-10-08 00:04:00,
2013-10-07 18:06:00,64.8,12.7,29.77,WSW,258,7.0,10.0,13,0.00,,,0.00,Wunderground v.1.15,2013-10-08 00:06:00,
2013-10-07 18:08:00,64.7,14.3,29.78,WNW,284,6.0,10.0,14,0.00,,,0.00,Wunderground v.1.15,2013-10-08 00:08:00,
2013-10-07 18:09:00,64.7,14.3,29.77,West,274,5.0,10.0,14,0.00,,,0.00,Wunderground v.1.15,2013-10-08 00:09:00,
2013-10-07 18:14:00,64.5,14.2,29.78,WSW,242,5.0,5.0,14,0.00,,,0.00,Wunderground v.1.15,2013-10-08 00:14:00,
2013-10-07 18:15:00,64.5,14.2,29.78,WSW,252,5.0,6.0,14,0.00,,,0.00,Wunderground v.1.15,2013-10-08 00:15:00,
2013-10-07 18:16:00,64.4,14.1,29.78,West,269,5.0,6.0,14,0.00,,,0.00,Wunderground v.1.15,2013-10-08 00:16:00,
2013-10-07 18:20:00,64.0,15.4,29.78,West,269,4.0,6.0,15,0.00,,,0.00,Wunderground v.1.15,2013-10-08 00:20:00,
2013-10-07 18:21:00,63.9,15.3,29.78,West,264,4.0,7.0,15,0.00,,,0.00,Wunderground v.1.15,2013-10-08 00:21:00,
2013-10-07 18:22:00,63.9,15.3,29.78,West,262,4.0,7.0,15,0.00,,,0.00,Wunderground v.1.15,2013-10-08 00:22:00,
2013-10-07 18:24:00,63.8,15.2,29.78,SSW,205,4.0,7.0,15,0.00,,,0.00,Wunderground v.1.15,2013-10-08 00:24:00,
2013-10-07 18:25:00,63.8,15.2,29.78,West,264,4.0,7.0,15,0.00,,,0.00,Wunderground v.1.15,2013-10-08 00:25:00,
2013-10-07 18:27:00,63.7,15.1,29.78,SW,232,4.0,7.0,15,0.00,,,0.00,Wunderground v.1.15,2013-10-08 00:27:00,
2013-10-07 18:29:00,63.6,15.0,29.78,West,266,4.0,7.0,15,0.00,,,0.00,Wunderground v.1.15,2013-10-08 00:29:00,
2013-10-07 18:32:00,63.5,15.0,29.78,West,266,4.0,6.0,15,0.00,,,0.00,Wunderground v.1.15,2013-10-08 00:32:00,
2013-10-07 18:33:00,63.5,15.0,29.78,West,270,4.0,6.0,15,0.00,,,0.00,Wunderground v.1.15,2013-10-08 00:33:00,
2013-10-07 18:35:00,63.5,15.0,29.78,SW,224,4.0,6.0,15,0.00,,,0.00,Wunderground v.1.15,2013-10-08 00:35:00,
2013-10-07 18:36:00,63.4,14.9,29.78,SW,231,4.0,6.0,15,0.00,,,0.00,Wunderground v.1.15,2013-10-08 00:36:00,
2013-10-07 18:39:00,63.3,14.8,29.78,West,262,4.0,6.0,15,0.00,,,0.00,Wunderground v.1.15,2013-10-08 00:39:00,
2013-10-07 18:40:00,63.3,14.8,29.79,West,266,4.0,4.0,15,0.00,,,0.00,Wunderground v.1.15,2013-10-08 00:40:00,
2013-10-07 18:41:00,63.3,14.8,29.78,SSW,212,4.0,4.0,15,0.00,,,0.00,Wunderground v.1.15,2013-10-08 00:41:00,
2013-10-07 18:42:00,63.3,14.8,29.79,SW,224,4.0,4.0,15,0.00,,,0.00,Wunderground v.1.15,2013-10-08 00:42:00,
2013-10-07 18:48:00,62.9,16.0,29.79,SW,226,3.0,4.0,16,0.00,,,0.00,Wunderground v.1.15,2013-10-08 00:48:00,
2013-10-07 18:50:00,62.6,15.7,29.78,WSW,257,3.0,3.0,16,0.00,,,0.00,Wunderground v.1.15,2013-10-08 00:50:00,
2013-10-07 18:51:00,62.6,14.2,29.78,WSW,242,2.0,3.0,15,0.00,,,0.00,Wunderground v.1.15,2013-10-08 00:51:00,
2013-10-07 18:54:00,62.5,14.2,29.78,West,265,2.0,3.0,15,0.00,,,0.00,Wunderground v.1.15,2013-10-08 00:54:00,
2013-10-07 18:55:00,62.5,14.2,29.78,WSW,252,3.0,4.0,15,0.00,,,0.00,Wunderground v.1.15,2013-10-08 00:55:00,
2013-10-07 18:57:00,62.5,14.2,29.78,SW,215,2.0,4.0,15,0.00,,,0.00,Wunderground v.1.15,2013-10-08 00:57:00,
2013-10-07 18:58:00,62.4,15.6,29.78,SSW,207,2.0,4.0,16,0.00,,,0.00,Wunderground v.1.15,2013-10-08 00:58:00,
2013-10-07 19:01:00,62.0,16.6,29.78,South,176,1.0,2.0,17,0.00,,,0.00,Wunderground v.1.15,2013-10-08 01:01:00,
2013-10-07 19:02:00,61.8,16.5,29.79,South,177,1.0,2.0,17,0.00,,,0.00,Wunderground v.1.15,2013-10-08 01:02:00,
2013-10-07 19:03:00,61.6,14.9,29.78,WSW,256,1.0,2.0,16,0.00,,,0.00,Wunderground v.1.15,2013-10-08 01:03:00,
2013-10-07 19:04:00,61.5,14.8,29.78,SW,217,1.0,2.0,16,0.00,,,0.00,Wunderground v.1.15,2013-10-08 01:04:00,
2013-10-07 19:05:00,61.4,17.5,29.79,WSW,254,1.0,4.0,18,0.00,,,0.00,Wunderground v.1.15,2013-10-08 01:05:00,
2013-10-07 19:08:00,61.3,16.1,29.78,SE,138,1.0,4.0,17,0.00,,,0.00,Wunderground v.1.15,2013-10-08 01:08:00,
2013-10-07 19:10:00,61.1,17.2,29.79,West,260,1.0,1.0,18,0.00,,,0.00,Wunderground v.1.15,2013-10-08 01:10:00,
2013-10-07 19:11:00,61.0,17.1,29.78,West,260,1.0,1.0,18,0.00,,,0.00,Wunderground v.1.15,2013-10-08 01:11:00,
2013-10-07 19:12:00,60.9,17.0,29.78,SE,125,1.0,1.0,18,0.00,,,0.00,Wunderground v.1.15,2013-10-08 01:12:00,
2013-10-07 19:14:00,60.7,16.9,29.78,SE,128,1.0,1.0,18,0.00,,,0.00,Wunderground v.1.15,2013-10-08 01:14:00,
2013-10-07 19:16:00,60.5,16.7,29.78,SE,126,1.0,1.0,18,0.00,,,0.00,Wunderground v.1.15,2013-10-08 01:16:00,
2013-10-07 19:19:00,60.1,17.6,29.78,SE,125,0.0,1.0,19,0.00,,,0.00,Wunderground v.1.15,2013-10-08 01:19:00,
2013-10-07 19:21:00,59.7,17.3,29.78,SE,126,0.0,1.0,19,0.00,,,0.00,Wunderground v.1.15,2013-10-08 01:21:00,
2013-10-07 19:23:00,59.4,17.1,29.78,SE,125,0.0,1.0,19,0.00,,,0.00,Wunderground v.1.15,2013-10-08 01:23:00,
2013-10-07 19:24:00,59.2,16.9,29.78,SE,126,0.0,1.0,19,0.00,,,0.00,Wunderground v.1.15,2013-10-08 01:24:00,
2013-10-07 19:25:00,59.1,19.1,29.78,SE,126,0.0,1.0,21,0.00,,,0.00,Wunderground v.1.15,2013-10-08 01:25:00,
2013-10-07 19:26:00,58.9,19.0,29.78,ESE,109,0.0,1.0,21,0.00,,,0.00,Wunderground v.1.15,2013-10-08 01:26:00,
2013-10-07 19:27:00,58.7,18.8,29.78,ESE,109,0.0,1.0,21,0.00,,,0.00,Wunderground v.1.15,2013-10-08 01:27:00,
2013-10-07 19:30:00,58.3,19.6,29.78,East,86,0.0,1.0,22,0.00,,,0.00,Wunderground v.1.15,2013-10-08 01:30:00,
2013-10-07 19:32:00,57.9,21.3,29.79,East,86,0.0,1.0,24,0.00,,,0.00,Wunderground v.1.15,2013-10-08 01:32:00,
2013-10-07 19:33:00,57.8,22.2,29.79,East,86,0.0,1.0,25,0.00,,,0.00,Wunderground v.1.15,2013-10-08 01:33:00,
2013-10-07 19:34:00,57.6,22.0,29.78,East,86,0.0,1.0,25,0.00,,,0.00,Wunderground v.1.15,2013-10-08 01:34:00,
2013-10-07 19:36:00,57.2,22.6,29.78,ENE,72,0.0,2.0,26,0.00,,,0.00,Wunderground v.1.15,2013-10-08 01:36:00,
2013-10-07 19:38:00,56.9,21.4,29.78,ENE,72,0.0,2.0,25,0.00,,,0.00,Wunderground v.1.15,2013-10-08 01:38:00,
2013-10-07 19:42:00,56.6,22.1,29.79,ENE,60,0.0,1.0,26,0.00,,,0.00,Wunderground v.1.15,2013-10-08 01:42:00,
2013-10-07 19:43:00,56.5,22.0,29.78,ENE,61,0.0,1.0,26,0.00,,,0.00,Wunderground v.1.15,2013-10-08 01:43:00,
2013-10-07 19:44:00,56.5,20.1,29.79,ENE,63,1.0,1.0,24,0.00,,,0.00,Wunderground v.1.15,2013-10-08 01:44:00,
2013-10-07 19:45:00,56.5,19.1,29.78,ENE,63,0.0,1.0,23,0.00,,,0.00,Wunderground v.1.15,2013-10-08 01:45:00,
2013-10-07 19:50:00,56.7,20.3,29.79,NW,308,0.0,1.0,24,0.00,,,0.00,Wunderground v.1.15,2013-10-08 01:50:00,
2013-10-07 19:52:00,56.7,19.3,29.79,NW,308,0.0,1.0,23,0.00,,,0.00,Wunderground v.1.15,2013-10-08 01:52:00,
2013-10-07 19:53:00,56.7,20.3,29.79,NW,308,0.0,1.0,24,0.00,,,0.00,Wunderground v.1.15,2013-10-08 01:53:00,
2013-10-07 19:56:00,56.9,18.4,29.79,NW,308,0.0,1.0,22,0.00,,,0.00,Wunderground v.1.15,2013-10-08 01:56:00,
2013-10-07 19:59:00,57.2,17.6,29.79,SW,232,1.0,2.0,21,0.00,,,0.00,Wunderground v.1.15,2013-10-08 01:59:00,
2013-10-07 20:00:00,57.4,17.7,29.79,SW,214,1.0,1.0,21,0.00,,,0.00,Wunderground v.1.15,2013-10-08 02:00:00,
2013-10-07 20:01:00,57.5,17.8,29.79,SSW,212,0.0,1.0,21,0.00,,,0.00,Wunderground v.1.15,2013-10-08 02:01:00,
2013-10-07 20:02:00,57.6,17.9,29.79,SSW,212,0.0,1.0,21,0.00,,,0.00,Wunderground v.1.15,2013-10-08 02:02:00,
2013-10-07 20:05:00,57.4,17.7,29.79,SSW,212,0.0,1.0,21,0.00,,,0.00,Wunderground v.1.15,2013-10-08 02:05:00,
2013-10-07 20:06:00,57.3,17.6,29.79,SSW,212,0.0,1.0,21,0.00,,,0.00,Wunderground v.1.15,2013-10-08 02:06:00,
2013-10-07 20:07:00,57.3,17.6,29.78,SSW,212,0.0,1.0,21,0.00,,,0.00,Wunderground v.1.15,2013-10-08 02:07:00,
2013-10-07 20:09:00,57.2,17.6,29.79,SSW,212,0.0,1.0,21,0.00,,,0.00,Wunderground v.1.15,2013-10-08 02:09:00,
2013-10-07 20:10:00,57.2,18.6,29.78,SSW,212,0.0,0.0,22,0.00,,,0.00,Wunderground v.1.15,2013-10-08 02:10:00,
2013-10-07 20:12:00,57.3,18.7,29.79,WSW,252,0.0,2.0,22,0.00,,,0.00,Wunderground v.1.15,2013-10-08 02:12:00,
2013-10-07 20:14:00,57.4,18.8,29.79,WNW,285,0.0,2.0,22,0.00,,,0.00,Wunderground v.1.15,2013-10-08 02:14:00,
2013-10-07 20:15:00,57.4,18.8,29.79,ESE,121,0.0,2.0,22,0.00,,,0.00,Wunderground v.1.15,2013-10-08 02:15:00,
2013-10-07 20:17:00,57.2,20.7,29.79,ESE,121,1.0,2.0,24,0.00,,,0.00,Wunderground v.1.15,2013-10-08 02:17:00,
2013-10-07 20:20:00,56.3,22.7,29.78,ESE,121,1.0,1.0,27,0.00,,,0.00,Wunderground v.1.15,2013-10-08 02:20:00,
2013-10-07 20:22:00,55.7,20.4,29.78,NE,43,1.0,1.0,25,0.00,,,0.00,Wunderground v.1.15,2013-10-08 02:22:00,
2013-10-07 20:23:00,55.5,20.2,29.78,NE,43,1.0,1.0,25,0.00,,,0.00,Wunderground v.1.15,2013-10-08 02:23:00,
2013-10-07 20:24:00,55.3,20.0,29.78,NE,43,0.0,1.0,25,0.00,,,0.00,Wunderground v.1.15,2013-10-08 02:24:00,
2013-10-07 20:25:00,55.1,19.9,29.78,NE,43,0.0,1.0,25,0.00,,,0.00,Wunderground v.1.15,2013-10-08 02:25:00,
2013-10-07 20:26:00,55.0,20.7,29.78,NE,43,0.0,1.0,26,0.00,,,0.00,Wunderground v.1.15,2013-10-08 02:26:00,
2013-10-07 20:28:00,54.7,20.4,29.78,NE,43,0.0,1.0,26,0.00,,,0.00,Wunderground v.1.15,2013-10-08 02:28:00,
2013-10-07 20:31:00,54.2,20.0,29.78,NE,43,0.0,0.0,26,0.00,,,0.00,Wunderground v.1.15,2013-10-08 02:31:00,
2013-10-07 20:32:00,54.1,19.9,29.78,NE,43,0.0,0.0,26,0.00,,,0.00,Wunderground v.1.15,2013-10-08 02:32:00,
2013-10-07 20:34:00,53.9,20.6,29.78,NE,43,0.0,0.0,27,0.00,,,0.00,Wunderground v.1.15,2013-10-08 02:34:00,
2013-10-07 20:35:00,53.8,20.6,29.78,NE,43,0.0,0.0,27,0.00,,,0.00,Wunderground v.1.15,2013-10-08 02:35:00,
2013-10-07 20:36:00,53.7,20.5,29.78,NE,43,0.0,0.0,27,0.00,,,0.00,Wunderground v.1.15,2013-10-08 02:36:00,
2013-10-07 20:40:00,53.1,20.8,29.78,NNW,330,0.0,1.0,28,0.00,,,0.00,Wunderground v.1.15,2013-10-08 02:40:00,
2013-10-07 20:41:00,53.0,21.6,29.78,NNW,330,0.0,1.0,29,0.00,,,0.00,Wunderground v.1.15,2013-10-08 02:41:00,
2013-10-07 20:43:00,52.8,20.5,29.78,NNW,330,0.0,1.0,28,0.00,,,0.00,Wunderground v.1.15,2013-10-08 02:43:00,
2013-10-07 20:44:00,52.7,19.6,29.78,NNW,330,0.0,1.0,27,0.00,,,0.00,Wunderground v.1.15,2013-10-08 02:44:00,
2013-10-07 20:48:00,52.5,21.1,29.78,NW,314,0.0,1.0,29,0.00,,,0.00,Wunderground v.1.15,2013-10-08 02:48:00,
2013-10-07 20:50:00,52.4,20.2,29.78,NW,314,0.0,0.0,28,0.00,,,0.00,Wunderground v.1.15,2013-10-08 02:50:00,
2013-10-07 20:51:00,52.4,20.2,29.78,NW,315,0.0,0.0,28,0.00,,,0.00,Wunderground v.1.15,2013-10-08 02:51:00,
2013-10-07 20:55:00,52.3,20.1,29.78,NW,314,0.0,1.0,28,0.00,,,0.00,Wunderground v.1.15,2013-10-08 02:55:00,
2013-10-07 20:56:00,52.2,20.9,29.78,NW,314,0.0,1.0,29,0.00,,,0.00,Wunderground v.1.15,2013-10-08 02:56:00,
2013-10-07 20:57:00,52.1,20.8,29.78,NNW,329,0.0,1.0,29,0.00,,,0.00,Wunderground v.1.15,2013-10-08 02:57:00,
2013-10-07 21:00:00,51.6,19.5,29.78,NNW,329,0.0,0.0,28,0.00,,,0.00,Wunderground v.1.15,2013-10-08 03:00:00,
2013-10-07 21:02:00,51.4,20.2,29.78,NNW,340,0.0,1.0,29,0.00,,,0.00,Wunderground v.1.15,2013-10-08 03:02:00,
2013-10-07 21:05:00,51.2,20.8,29.78,NNW,339,0.0,1.0,30,0.00,,,0.00,Wunderground v.1.15,2013-10-08 03:05:00,
2013-10-07 21:07:00,51.1,21.5,29.78,NNW,340,0.0,1.0,31,0.00,,,0.00,Wunderground v.1.15,2013-10-08 03:07:00,
2013-10-07 21:09:00,50.9,21.3,29.78,NNW,340,0.0,1.0,31,0.00,,,0.00,Wunderground v.1.15,2013-10-08 03:09:00,
2013-10-07 21:11:00,50.7,20.4,29.78,NNW,339,0.0,0.0,30,0.00,,,0.00,Wunderground v.1.15,2013-10-08 03:11:00,
2013-10-07 21:14:00,50.5,21.7,29.78,East,90,0.0,1.0,32,0.00,,,0.00,Wunderground v.1.15,2013-10-08 03:14:00,
2013-10-07 21:15:00,50.5,21.7,29.78,East,89,0.0,1.0,32,0.00,,,0.00,Wunderground v.1.15,2013-10-08 03:15:00,
2013-10-07 21:16:00,50.4,21.6,29.78,East,91,0.0,1.0,32,0.00,,,0.00,Wunderground v.1.15,2013-10-08 03:16:00,
2013-10-07 21:18:00,50.2,21.4,29.78,East,89,0.0,1.0,32,0.00,,,0.00,Wunderground v.1.15,2013-10-08 03:18:00,
2013-10-07 21:20:00,50.0,22.0,29.78,East,89,0.0,1.0,33,0.00,,,0.00,Wunderground v.1.15,2013-10-08 03:20:00,
2013-10-07 21:21:00,50.0,22.0,29.78,East,89,0.0,1.0,33,0.00,,,0.00,Wunderground v.1.15,2013-10-08 03:21:00,
2013-10-07 21:22:00,49.9,21.9,29.78,East,89,0.0,1.0,33,0.00,,,0.00,Wunderground v.1.15,2013-10-08 03:22:00,
2013-10-07 21:23:00,49.9,21.9,29.78,East,89,0.0,1.0,33,0.00,,,0.00,Wunderground v.1.15,2013-10-08 03:23:00,
2013-10-07 21:25:00,49.8,22.5,29.78,East,89,0.0,1.0,34,0.00,,,0.00,Wunderground v.1.15,2013-10-08 03:25:00,
2013-10-07 21:26:00,49.7,23.1,29.77,East,91,0.0,1.0,35,0.00,,,0.00,Wunderground v.1.15,2013-10-08 03:26:00,
2013-10-07 21:30:00,49.5,23.6,29.77,East,90,0.0,0.0,36,0.00,,,0.00,Wunderground v.1.15,2013-10-08 03:30:00,
2013-10-07 21:31:00,49.5,23.6,29.77,East,91,0.0,0.0,36,0.00,,,0.00,Wunderground v.1.15,2013-10-08 03:31:00,
2013-10-07 21:32:00,49.5,23.6,29.77,East,89,0.0,0.0,36,0.00,,,0.00,Wunderground v.1.15,2013-10-08 03:32:00,
2013-10-07 21:33:00,49.4,24.2,29.77,NE,50,0.0,1.0,37,0.00,,,0.00,Wunderground v.1.15,2013-10-08 03:33:00,
2013-10-07 21:35:00,49.2,23.4,29.77,NNE,30,0.0,1.0,36,0.00,,,0.00,Wunderground v.1.15,2013-10-08 03:35:00,
2013-10-07 21:38:00,49.1,23.3,29.77,NNE,30,0.0,1.0,36,0.00,,,0.00,Wunderground v.1.15,2013-10-08 03:38:00,
2013-10-07 21:39:00,49.2,23.4,29.77,ESE,118,0.0,1.0,36,0.00,,,0.00,Wunderground v.1.15,2013-10-08 03:39:00,
2013-10-07 21:40:00,49.3,23.4,29.77,ESE,118,0.0,1.0,36,0.00,,,0.00,Wunderground v.1.15,2013-10-08 03:40:00,
2013-10-07 21:41:00,49.3,24.1,29.77,NNE,14,0.0,1.0,37,0.00,,,0.00,Wunderground v.1.15,2013-10-08 03:41:00,
2013-10-07 21:45:00,49.3,22.8,29.77,SW,233,0.0,2.0,35,0.00,,,0.00,Wunderground v.1.15,2013-10-08 03:45:00,
2013-10-07 21:47:00,49.7,23.8,29.76,SW,234,1.0,2.0,36,0.00,,,0.00,Wunderground v.1.15,2013-10-08 03:47:00,
2013-10-07 21:48:00,49.8,23.9,29.77,SW,225,0.0,2.0,36,0.00,,,0.00,Wunderground v.1.15,2013-10-08 03:48:00,
2013-10-07 21:49:00,49.8,23.9,29.76,East,96,1.0,2.0,36,0.00,,,0.00,Wunderground v.1.15,2013-10-08 03:49:00,
2013-10-07 21:50:00,49.7,23.8,29.76,West,276,1.0,3.0,36,0.00,,,0.00,Wunderground v.1.15,2013-10-08 03:50:00,
2013-10-07 21:54:00,51.8,23.6,29.76,SSE,155,1.0,5.0,33,0.00,,,0.00,Wunderground v.1.15,2013-10-08 03:54:00,
2013-10-07 21:55:00,52.4,21.8,29.76,West,276,1.0,14.0,30,0.00,,,0.00,Wunderground v.1.15,2013-10-08 03:55:00,
2013-10-07 21:57:00,55.4,19.2,29.76,West,264,4.0,21.0,24,0.00,,,0.00,Wunderground v.1.15,2013-10-08 03:57:00,
2013-10-07 21:59:00,57.6,17.9,29.76,West,262,6.0,21.0,21,0.00,,,0.00,Wunderground v.1.15,2013-10-08 03:59:00,
2013-10-07 22:00:00,58.6,18.7,29.76,WNW,293,7.0,21.0,21,0.00,,,0.00,Wunderground v.1.15,2013-10-08 04:00:00,
2013-10-07 22:01:00,59.3,18.2,29.76,West,259,8.0,21.0,20,0.00,,,0.00,Wunderground v.1.15,2013-10-08 04:01:00,
2013-10-07 22:02:00,59.9,17.5,29.76,WNW,282,9.0,21.0,19,0.00,,,0.00,Wunderground v.1.15,2013-10-08 04:02:00,
2013-10-07 22:03:00,60.3,17.8,29.76,WNW,285,10.0,21.0,19,0.00,,,0.00,Wunderground v.1.15,2013-10-08 04:03:00,
2013-10-07 22:06:00,61.3,17.4,29.76,West,263,12.0,21.0,18,0.00,,,0.00,Wunderground v.1.15,2013-10-08 04:06:00,
2013-10-07 22:08:00,61.6,16.3,29.76,West,262,12.0,21.0,17,0.00,,,0.00,Wunderground v.1.15,2013-10-08 04:08:00,
2013-10-07 22:09:00,61.8,16.5,29.76,WSW,258,12.0,21.0,17,0.00,,,0.00,Wunderground v.1.15,2013-10-08 04:09:00,
2013-10-07 22:10:00,61.9,16.5,29.75,West,276,12.0,16.0,17,0.00,,,0.00,Wunderground v.1.15,2013-10-08 04:10:00,
2013-10-07 22:11:00,62.0,16.6,29.75,West,273,12.0,16.0,17,0.00,,,0.00,Wunderground v.1.15,2013-10-08 04:11:00,
2013-10-07 22:12:00,62.0,16.6,29.75,West,278,12.0,16.0,17,0.00,,,0.00,Wunderground v.1.15,2013-10-08 04:12:00,
2013-10-07 22:15:00,61.8,16.5,29.75,WSW,252,10.0,16.0,17,0.00,,,0.00,Wunderground v.1.15,2013-10-08 04:15:00,
2013-10-07 22:16:00,61.8,16.5,29.75,West,259,9.0,16.0,17,0.00,,,0.00,Wunderground v.1.15,2013-10-08 04:16:00,
2013-10-07 22:20:00,61.9,13.7,29.76,West,259,8.0,16.0,15,0.00,,,0.00,Wunderground v.1.15,2013-10-08 04:20:00,
2013-10-07 22:21:00,62.1,13.8,29.75,WSW,255,8.0,16.0,15,0.00,,,0.00,Wunderground v.1.15,2013-10-08 04:21:00,
2013-10-07 22:25:00,62.1,13.8,29.76,WSW,240,9.0,16.0,15,0.00,,,0.00,Wunderground v.1.15,2013-10-08 04:25:00,
2013-10-07 22:27:00,61.8,13.6,29.75,WSW,246,8.0,16.0,15,0.00,,,0.00,Wunderground v.1.15,2013-10-08 04:27:00,
2013-10-07 22:29:00,61.6,13.4,29.75,West,259,8.0,16.0,15,0.00,,,0.00,Wunderground v.1.15,2013-10-08 04:29:00,
2013-10-07 22:31:00,61.4,14.7,29.75,WSW,252,6.0,7.0,16,0.00,,,0.00,Wunderground v.1.15,2013-10-08 04:31:00,
2013-10-07 22:32:00,61.3,14.7,29.75,WSW,249,6.0,7.0,16,0.00,,,0.00,Wunderground v.1.15,2013-10-08 04:32:00,
2013-10-07 22:33:00,61.2,14.6,29.75,West,269,6.0,9.0,16,0.00,,,0.00,Wunderground v.1.15,2013-10-08 04:33:00,
2013-10-07 22:34:00,61.1,13.0,29.75,WSW,255,6.0,9.0,15,0.00,,,0.00,Wunderground v.1.15,2013-10-08 04:34:00,
2013-10-07 22:35:00,61.2,13.1,29.75,SW,233,6.0,9.0,15,0.00,,,0.00,Wunderground v.1.15,2013-10-08 04:35:00,
2013-10-07 22:36:00,61.2,13.1,29.75,WSW,243,5.0,9.0,15,0.00,,,0.00,Wunderground v.1.15,2013-10-08 04:36:00,
2013-10-07 22:37:00,61.1,13.0,29.75,WSW,257,5.0,9.0,15,0.00,,,0.00,Wunderground v.1.15,2013-10-08 04:37:00,
2013-10-07 22:39:00,61.1,11.5,29.75,West,266,5.0,9.0,14,0.00,,,0.00,Wunderground v.1.15,2013-10-08 04:39:00,
2013-10-07 22:40:00,61.1,11.5,29.75,WNW,283,5.0,5.0,14,0.00,,,0.00,Wunderground v.1.15,2013-10-08 04:40:00,
2013-10-07 22:42:00,60.9,12.9,29.75,West,270,5.0,9.0,15,0.00,,,0.00,Wunderground v.1.15,2013-10-08 04:42:00,
2013-10-07 22:45:00,60.9,12.9,29.75,West,269,4.0,9.0,15,0.00,,,0.00,Wunderground v.1.15,2013-10-08 04:45:00,
2013-10-07 22:46:00,60.8,12.8,29.75,West,278,4.0,9.0,15,0.00,,,0.00,Wunderground v.1.15,2013-10-08 04:46:00,
2013-10-07 22:48:00,60.7,12.7,29.75,West,278,4.0,9.0,15,0.00,,,0.00,Wunderground v.1.15,2013-10-08 04:48:00,
2013-10-07 22:49:00,60.6,12.6,29.75,WSW,240,4.0,9.0,15,0.00,,,0.00,Wunderground v.1.15,2013-10-08 04:49:00,
2013-10-07 22:52:00,60.7,12.7,29.75,West,262,5.0,9.0,15,0.00,,,0.00,Wunderground v.1.15,2013-10-08 04:52:00,
2013-10-07 22:55:00,61.1,13.0,29.75,West,271,6.0,10.0,15,0.00,,,0.00,Wunderground v.1.15,2013-10-08 04:55:00,
2013-10-07 22:56:00,61.2,11.5,29.75,WNW,293,6.0,14.0,14,0.00,,,0.00,Wunderground v.1.15,2013-10-08 04:56:00,
2013-10-07 22:57:00,61.3,11.6,29.74,West,277,7.0,14.0,14,0.00,,,0.00,Wunderground v.1.15,2013-10-08 04:57:00,
2013-10-07 22:58:00,61.3,13.2,29.75,WSW,256,7.0,14.0,15,0.00,,,0.00,Wunderground v.1.15,2013-10-08 04:58:00,
2013-10-07 22:59:00,61.4,13.3,29.75,WNW,285,8.0,14.0,15,0.00,,,0.00,Wunderground v.1.15,2013-10-08 04:59:00,
2013-10-07 23:02:00,61.4,13.3,29.75,West,269,9.0,9.0,15,0.00,,,0.00,Wunderground v.1.15,2013-10-08 05:02:00,
2013-10-07 23:03:00,61.3,11.6,29.74,West,270,9.0,9.0,14,0.00,,,0.00,Wunderground v.1.15,2013-10-08 05:03:00,
2013-10-07 23:05:00,61.4,13.3,29.74,SW,235,9.0,9.0,15,0.00,,,0.00,Wunderground v.1.15,2013-10-08 05:05:00,
2013-10-07 23:06:00,61.4,13.3,29.74,WNW,295,9.0,9.0,15,0.00,,,0.00,Wunderground v.1.15,2013-10-08 05:06:00,
2013-10-07 23:08:00,61.2,11.5,29.74,WNW,295,8.0,9.0,14,0.00,,,0.00,Wunderground v.1.15,2013-10-08 05:08:00,
2013-10-07 23:09:00,61.1,11.5,29.74,WNW,283,8.0,9.0,14,0.00,,,0.00,Wunderground v.1.15,2013-10-08 05:09:00,
2013-10-07 23:11:00,61.0,11.4,29.74,West,262,7.0,11.0,14,0.00,,,0.00,Wunderground v.1.15,2013-10-08 05:11:00,
2013-10-07 23:12:00,60.9,11.3,29.74,West,276,8.0,15.0,14,0.00,,,0.00,Wunderground v.1.15,2013-10-08 05:12:00,
2013-10-07 23:15:00,60.7,11.1,29.74,WNW,284,8.0,15.0,14,0.00,,,0.00,Wunderground v.1.15,2013-10-08 05:15:00,
2013-10-07 23:16:00,60.7,11.1,29.74,West,281,8.0,15.0,14,0.00,,,0.00,Wunderground v.1.15,2013-10-08 05:16:00,
2013-10-07 23:17:00,60.7,11.1,29.74,West,274,8.0,15.0,14,0.00,,,0.00,Wunderground v.1.15,2013-10-08 05:17:00,
2013-10-07 23:18:00,60.7,11.1,29.74,West,262,9.0,15.0,14,0.00,,,0.00,Wunderground v.1.15,2013-10-08 05:18:00,
2013-10-07 23:19:00,60.7,11.1,29.74,WNW,287,9.0,15.0,14,0.00,,,0.00,Wunderground v.1.15,2013-10-08 05:19:00,
2013-10-07 23:22:00,61.0,11.4,29.74,SSW,203,10.0,11.0,14,0.00,,,0.00,Wunderground v.1.15,2013-10-08 05:22:00,
2013-10-07 23:24:00,61.2,11.5,29.73,West,264,11.0,16.0,14,0.00,,,0.00,Wunderground v.1.15,2013-10-08 05:24:00,
2013-10-07 23:26:00,61.3,11.6,29.74,WNW,302,11.0,16.0,14,0.00,,,0.00,Wunderground v.1.15,2013-10-08 05:26:00,
2013-10-07 23:27:00,61.3,11.6,29.73,WSW,257,12.0,16.0,14,0.00,,,0.00,Wunderground v.1.15,2013-10-08 05:27:00,
2013-10-07 23:30:00,61.5,10.1,29.73,West,272,12.0,14.0,13,0.00,,,0.00,Wunderground v.1.15,2013-10-08 05:30:00,
2013-10-07 23:32:00,61.5,10.1,29.73,NW,305,12.0,16.0,13,0.00,,,0.00,Wunderground v.1.15,2013-10-08 05:32:00,
2013-10-07 23:36:00,61.5,10.1,29.73,West,262,12.0,16.0,13,0.00,,,0.00,Wunderground v.1.15,2013-10-08 05:36:00,
2013-10-07 23:37:00,61.5,10.1,29.72,WNW,289,11.0,16.0,13,0.00,,,0.00,Wunderground v.1.15,2013-10-08 05:37:00,
2013-10-07 23:39:00,61.5,10.1,29.72,West,279,12.0,22.0,13,0.00,,,0.00,Wunderground v.1.15,2013-10-08 05:39:00,
2013-10-07 23:40:00,61.5,10.1,29.73,WSW,257,12.0,19.0,13,0.00,,,0.00,Wunderground v.1.15,2013-10-08 05:40:00,
2013-10-07 23:41:00,61.5,10.1,29.72,WNW,298,12.0,19.0,13,0.00,,,0.00,Wunderground v.1.15,2013-10-08 05:41:00,
2013-10-07 23:42:00,61.5,10.1,29.72,WSW,246,12.0,19.0,13,0.00,,,0.00,Wunderground v.1.15,2013-10-08 05:42:00,
2013-10-07 23:45:00,61.5,8.3,29.72,West,262,13.0,26.0,12,0.00,,,0.00,Wunderground v.1.15,2013-10-08 05:45:00,
2013-10-07 23:48:00,61.5,8.3,29.72,WNW,290,13.0,26.0,12,0.00,,,0.00,Wunderground v.1.15,2013-10-08 05:48:00,
2013-10-07 23:49:00,61.6,8.4,29.71,West,262,13.0,26.0,12,0.00,,,0.00,Wunderground v.1.15,2013-10-08 05:49:00,
2013-10-07 23:51:00,61.6,8.4,29.72,West,267,13.0,14.0,12,0.00,,,0.00,Wunderground v.1.15,2013-10-08 05:51:00,
2013-10-07 23:53:00,61.5,8.3,29.71,West,270,14.0,19.0,12,0.00,,,0.00,Wunderground v.1.15,2013-10-08 05:53:00,
2013-10-07 23:54:00,61.5,8.3,29.71,West,280,14.0,19.0,12,0.00,,,0.00,Wunderground v.1.15,2013-10-08 05:54:00,
2013-10-07 23:55:00,61.5,8.3,29.71,WNW,293,14.0,19.0,12,0.00,,,0.00,Wunderground v.1.15,2013-10-08 05:55:00,
2013-10-07 23:56:00,61.6,8.4,29.71,WNW,285,14.0,19.0,12,0.00,,,0.00,Wunderground v.1.15,2013-10-08 05:56:00,
2013-10-07 23:57:00,61.6,8.4,29.71,West,262,15.0,19.0,12,0.00,,,0.00,Wunderground v.1.15,2013-10-08 05:57:00,